Latitude: N 50° 09' 49" Longitude: W 05° 11' 53" Elevation: 168m ASL

There are 20 visitors online

Adverts

<- Previous Day | Today | Next Day ->

All Data for 22 October 2018

Time
A - D
Temp
A - D
Dew Point
A - D
Humidity
A - D
Pressure
A - D
Wind
A - D
Wind Dir Gust
A - D
Rain Rate
A - D
Rain Total
00:00 11.7 10.0 89 1033.2 5.4 NW 13.0 0.0 0.0
00:01 11.7 10.0 89 1033.2 8.3 NE 13.0 0.0 0.0
00:02 11.7 10.0 89 1033.1 8.3 NE 13.0 0.0 0.0
00:03 11.7 10.0 89 1033.1 10.7 NW 13.0 0.0 0.0
00:04 11.7 10.0 89 1033.3 13.6 ENE 13.6 0.0 0.0
00:05 11.7 10.0 89 1033.3 3.8 N 13.6 0.0 0.0
00:06 11.7 10.0 89 1033.2 8.3 NE 13.6 0.0 0.0
00:07 11.7 10.0 89 1033.2 11.4 NE 13.6 0.0 0.0
00:08 11.7 10.0 89 1033.2 10.7 NE 13.6 0.0 0.0
00:09 11.7 10.0 89 1033.2 13.0 N 13.6 0.0 0.0
00:10 11.7 10.0 89 1033.3 7.6 SW 13.6 0.0 0.0
00:11 11.7 9.8 88 1033.1 6.9 N 13.6 0.0 0.0
00:12 11.7 9.8 88 1033.3 6.0 N 13.6 0.0 0.0
00:13 11.6 9.7 88 1033.2 6.0 N 13.6 0.0 0.0
00:14 11.6 9.7 88 1033.3 4.5 NW 13.0 0.0 0.0
00:15 11.6 9.7 88 1033.3 7.6 NE 13.0 0.0 0.0
00:17 11.6 9.7 88 1033.3 11.4 NE 13.0 0.0 0.0
00:18 11.6 9.7 88 1033.2 6.0 NE 13.0 0.0 0.0
00:19 11.6 9.7 88 1033.2 7.6 NE 11.4 0.0 0.0
00:20 11.6 9.7 88 1033.3 3.8 N 11.4 0.0 0.0
00:21 11.6 9.7 88 1033.4 7.6 N 11.4 0.0 0.0
00:22 11.6 9.7 88 1033.4 7.6 N 11.4 0.0 0.0
00:23 11.6 9.7 88 1033.3 9.2 NE 11.4 0.0 0.0
00:24 11.6 9.7 88 1033.3 8.3 NW 11.4 0.0 0.0
00:25 11.6 9.7 88 1033.3 12.1 NW 12.1 0.0 0.0
00:26 11.6 9.7 88 1033.5 6.9 N 12.1 0.0 0.0
00:27 11.6 9.7 88 1033.3 7.6 NW 12.1 0.0 0.0
00:28 11.6 9.7 88 1033.4 7.6 N 12.1 0.0 0.0
00:29 11.5 9.6 88 1033.5 5.4 E 12.1 0.0 0.0
00:30 11.6 9.7 88 1033.3 6.9 NW 12.1 0.0 0.0
00:31 11.6 9.7 88 1033.4 11.4 NW 12.1 0.0 0.0
00:32 11.6 9.7 88 1033.4 7.6 NE 12.1 0.0 0.0
00:33 11.6 9.7 88 1033.3 8.3 N 12.1 0.0 0.0
00:34 11.6 9.7 88 1033.6 6.0 NW 12.1 0.0 0.0
00:36 11.5 9.6 88 1033.5 6.9 NW 11.4 0.0 0.0
00:37 11.5 9.6 88 1033.7 10.7 N 11.4 0.0 0.0
00:38 11.6 9.7 88 1033.5 7.6 N 11.4 0.0 0.0
00:39 11.6 9.7 88 1033.5 10.7 N 11.4 0.0 0.0
00:40 11.6 9.7 88 1033.5 10.7 N 11.4 0.0 0.0
00:41 11.6 9.7 88 1033.5 6.9 N 11.4 0.0 0.0
00:42 11.5 9.6 88 1033.6 6.0 N 10.7 0.0 0.0
00:43 11.6 9.7 88 1033.5 6.9 NE 13.0 0.0 0.0
00:44 11.5 9.6 88 1033.6 9.2 N 13.0 0.0 0.0
00:45 11.6 9.7 88 1033.7 13.6 E 13.6 0.0 0.0
00:46 11.6 9.7 88 1033.4 7.6 NE 13.6 0.0 0.0
00:47 11.6 9.7 88 1033.6 4.5 SE 13.6 0.0 0.0
00:48 11.6 9.7 88 1033.8 10.7 N 13.6 0.0 0.0
00:49 11.6 9.7 88 1033.7 10.7 NW 13.6 0.0 0.0
00:50 11.6 9.7 88 1033.6 5.4 NW 13.6 0.0 0.0
00:51 11.6 9.7 88 1033.8 3.8 NNE 13.6 0.0 0.0
00:52 11.6 9.7 88 1033.7 6.9 NE 13.6 0.0 0.0
00:53 11.6 9.7 88 1033.6 3.8 NE 13.6 0.0 0.0
00:55 11.6 9.7 88 1033.6 9.8 NE 10.7 0.0 0.0
00:56 11.5 9.6 88 1033.7 5.4 NW 10.7 0.0 0.0
00:57 11.5 9.6 88 1033.7 11.4 W 11.4 0.0 0.0
00:58 11.5 9.6 88 1033.8 11.4 N 11.4 0.0 0.0
00:59 11.5 9.6 88 1033.6 6.9 SE 11.4 0.0 0.0
01:00 11.5 9.6 88 1033.8 9.8 NW 11.4 0.0 0.0
01:01 11.5 9.6 88 1033.7 8.3 NE 11.4 0.0 0.0
01:02 11.5 9.6 88 1033.8 9.2 NW 11.4 0.0 0.0
01:03 11.5 9.6 88 1033.7 9.2 NW 11.4 0.0 0.0
01:04 11.5 9.6 88 1033.8 9.2 NW 11.4 0.0 0.0
01:06 11.5 9.6 88 1033.7 9.2 NW 11.4 0.0 0.0
01:07 11.5 9.6 88 1033.7 10.7 SW 11.4 0.0 0.0
01:08 11.5 9.6 88 1033.9 9.2 SW 11.4 0.0 0.0
01:09 11.5 9.6 88 1033.9 6.0 NW 10.7 0.0 0.0
01:10 11.5 9.6 88 1033.9 6.0 NW 10.7 0.0 0.0
01:11 11.5 9.6 88 1034.0 6.9 N 10.7 0.0 0.0
01:12 11.5 9.6 88 1033.9 6.0 N 10.7 0.0 0.0
01:13 11.6 9.7 88 1033.9 9.2 N 10.7 0.0 0.0
01:14 11.5 9.6 88 1033.8 10.7 NW 10.7 0.0 0.0
01:15 11.5 9.6 88 1033.8 12.1 NE 12.1 0.0 0.0
01:16 11.5 9.6 88 1033.7 6.9 WNW 12.1 0.0 0.0
01:17 11.5 9.6 88 1033.8 5.4 S 12.1 0.0 0.0
01:18 11.5 9.6 88 1033.9 7.6 N 12.1 0.0 0.0
01:19 11.5 9.6 88 1034.0 6.9 NE 12.1 0.0 0.0
01:20 11.5 9.4 87 1033.8 6.0 N 12.1 0.0 0.0
01:21 11.4 9.3 87 1033.8 4.5 NW 12.1 0.0 0.0
01:22 11.4 9.5 88 1033.8 5.4 W 12.1 0.0 0.0
01:23 11.4 9.3 87 1034.0 9.2 NW 12.1 0.0 0.0
01:25 11.4 9.3 87 1034.0 9.8 N 10.7 0.0 0.0
01:26 11.4 9.3 87 1034.0 8.3 NE 10.7 0.0 0.0
01:27 11.4 9.3 87 1033.7 9.2 N 10.7 0.0 0.0
01:28 11.4 9.3 87 1034.0 11.4 NE 13.6 0.0 0.0
01:29 11.4 9.3 87 1034.0 11.4 NE 13.6 0.0 0.0
01:30 11.4 9.3 87 1034.0 9.8 NW 13.6 0.0 0.0
01:31 11.4 9.3 87 1033.8 6.0 WNW 13.6 0.0 0.0
01:32 11.4 9.3 87 1034.0 10.7 NE 13.6 0.0 0.0
01:33 11.4 9.3 87 1033.9 7.6 NE 13.6 0.0 0.0
01:34 11.4 9.3 87 1034.0 9.2 N 13.6 0.0 0.0
01:35 11.3 9.2 87 1033.9 6.9 NE 13.6 0.0 0.0
01:36 11.4 9.3 87 1034.2 8.3 NW 13.6 0.0 0.0
01:37 11.3 9.2 87 1034.1 11.4 N 13.6 0.0 0.0
01:38 11.4 9.3 87 1034.0 12.1 NW 13.6 0.0 0.0
01:39 11.4 9.3 87 1034.2 11.4 N 12.1 0.0 0.0
01:40 11.3 9.2 87 1034.1 10.7 NW 12.1 0.0 0.0
01:41 11.4 9.3 87 1034.1 12.1 WNW 12.1 0.0 0.0
01:42 11.4 9.3 87 1034.2 6.9 N 12.1 0.0 0.0
01:44 11.4 9.3 87 1034.1 8.3 NW 12.1 0.0 0.0
01:45 11.4 9.3 87 1034.1 9.8 SE 12.1 0.0 0.0
01:46 11.4 9.3 87 1034.1 9.8 N 12.1 0.0 0.0
01:47 11.4 9.3 87 1034.0 8.3 NE 12.1 0.0 0.0
01:48 11.3 9.2 87 1034.2 9.2 NE 12.1 0.0 0.0
01:49 11.4 9.3 87 1034.0 8.3 NNW 12.1 0.0 0.0
01:50 11.4 9.3 87 1034.1 5.4 E 12.1 0.0 0.0
01:51 11.3 9.2 87 1034.1 5.4 N 12.1 0.0 0.0
01:52 11.3 9.2 87 1034.0 11.4 NE 11.4 0.0 0.0
01:53 11.3 9.2 87 1034.1 12.1 W 12.1 0.0 0.0
01:54 11.3 9.2 87 1034.0 8.3 WNW 12.1 0.0 0.0
01:55 11.3 9.2 87 1034.0 9.2 E 12.1 0.0 0.0
01:56 11.3 9.2 87 1033.9 9.8 NW 12.1 0.0 0.0
01:57 11.3 9.2 87 1033.9 9.2 NE 12.1 0.0 0.0
01:58 11.3 9.2 87 1033.8 9.2 N 12.1 0.0 0.0
01:59 11.4 9.3 87 1033.9 9.8 SW 12.1 0.0 0.0
02:00 11.4 9.3 87 1034.0 11.4 N 12.1 0.0 0.0
02:01 11.4 9.3 87 1033.8 14.5 N 14.5 0.0 0.0
02:03 11.4 9.3 87 1033.9 14.5 N 14.5 0.0 0.0
02:04 11.4 9.3 87 1034.0 14.5 N 14.5 0.0 0.0
02:05 11.4 9.3 87 1033.8 14.5 N 14.5 0.0 0.0
02:06 11.4 9.3 87 1033.8 14.5 N 14.5 0.0 0.0
02:07 11.4 9.3 87 1033.9 14.5 N 14.5 0.0 0.0
02:08 11.4 9.3 87 1033.8 6.9 N 14.5 0.0 0.0
02:09 11.4 9.3 87 1033.8 10.7 NE 14.5 0.0 0.0
02:10 11.4 9.3 87 1034.0 7.6 N 14.5 0.0 0.0
02:11 11.4 9.3 87 1033.9 13.0 NW 14.5 0.0 0.0
02:12 11.4 9.3 87 1033.9 9.2 NW 14.5 0.0 0.0
02:13 11.4 9.3 87 1034.0 9.2 NW 14.5 0.0 0.0
02:14 11.4 9.3 87 1034.1 6.9 N 14.5 0.0 0.0
02:15 11.4 9.3 87 1033.9 13.0 NW 14.5 0.0 0.0
02:16 11.3 9.2 87 1034.0 15.2 NW 15.2 0.0 0.0
02:17 11.4 9.3 87 1033.9 6.0 NW 15.2 0.0 0.0
02:18 11.4 9.3 87 1034.0 7.6 N 15.2 0.0 0.0
02:19 11.4 9.3 87 1034.0 8.3 N 15.2 0.0 0.0
02:20 11.4 9.3 87 1033.8 14.5 N 15.2 0.0 0.0
02:21 11.3 9.2 87 1033.8 11.4 NE 15.2 0.0 0.0
02:23 11.3 9.2 87 1034.0 5.4 N 15.2 0.0 0.0
02:24 11.3 9.2 87 1033.9 7.6 NE 15.2 0.0 0.0
02:25 11.3 9.2 87 1034.1 13.6 N 15.2 0.0 0.0
02:26 11.3 9.2 87 1034.1 13.6 N 15.2 0.0 0.0
02:27 11.3 9.2 87 1034.0 14.5 N 14.5 0.0 0.0
02:28 11.3 9.2 87 1034.1 8.3 WNW 14.5 0.0 0.0
02:29 11.3 9.2 87 1034.1 8.3 NE 14.5 0.0 0.0
02:30 11.3 9.2 87 1034.2 9.2 SSW 14.5 0.0 0.0
02:31 11.3 9.2 87 1034.0 12.1 N 14.5 0.0 0.0
02:32 11.3 9.2 87 1033.9 7.6 NW 14.5 0.0 0.0
02:33 11.3 9.2 87 1034.0 9.8 NW 14.5 0.0 0.0
02:34 11.2 9.1 87 1033.9 6.0 N 14.5 0.0 0.0
02:35 11.2 9.1 87 1033.9 6.9 NW 14.5 0.0 0.0
02:36 11.2 9.1 87 1034.0 6.9 NE 14.5 0.0 0.0
02:37 11.2 9.1 87 1034.0 7.6 NW 12.1 0.0 0.0
02:38 11.2 9.1 87 1034.0 7.6 NW 12.1 0.0 0.0
02:39 11.2 9.1 87 1033.9 14.5 NE 14.5 0.0 0.0
02:40 11.1 9.0 87 1033.8 11.4 N 14.5 0.0 0.0
02:42 11.1 9.0 87 1033.8 10.7 SW 14.5 0.0 0.0
02:43 11.1 9.0 87 1033.8 8.3 NW 14.5 0.0 0.0
02:44 11.1 9.0 87 1033.8 11.4 NW 14.5 0.0 0.0
02:45 11.1 9.0 87 1033.8 11.4 NW 14.5 0.0 0.0
02:46 11.1 9.0 87 1033.8 11.4 NW 14.5 0.0 0.0
02:47 11.1 9.0 87 1033.7 5.4 NE 14.5 0.0 0.0
02:48 11.1 9.0 87 1033.7 12.1 N 14.5 0.0 0.0
02:49 11.1 9.0 87 1033.8 11.4 N 14.5 0.0 0.0
02:50 11.1 9.0 87 1033.8 9.8 ENE 12.1 0.0 0.0
02:51 11.1 9.0 87 1033.9 5.4 NNE 13.6 0.0 0.0
02:52 11.1 9.0 87 1033.9 6.9 NE 13.6 0.0 0.0
02:53 11.0 8.9 87 1033.8 10.7 NW 13.6 0.0 0.0
02:54 11.1 9.0 87 1034.0 10.7 WNW 13.6 0.0 0.0
02:55 11.1 9.0 87 1034.0 6.9 WNW 13.6 0.0 0.0
02:56 11.0 8.9 87 1033.9 8.3 S 13.6 0.0 0.0
02:57 11.0 8.9 87 1033.9 7.6 NW 13.6 0.0 0.0
02:58 11.0 8.9 87 1034.0 9.2 NE 13.6 0.0 0.0
02:59 11.0 8.9 87 1034.0 14.5 N 14.5 0.0 0.0
03:01 11.0 8.9 87 1033.9 9.2 NE 14.5 0.0 0.0
03:02 11.0 8.9 87 1034.0 9.2 NE 14.5 0.0 0.0
03:03 11.0 8.9 87 1033.9 9.2 NE 14.5 0.0 0.0
03:04 11.0 8.9 87 1033.8 9.2 W 14.5 0.0 0.0
03:05 11.0 8.9 87 1034.0 6.0 NE 14.5 0.0 0.0
03:06 11.0 8.9 87 1034.1 3.8 SE 14.5 0.0 0.0
03:07 11.0 8.9 87 1034.2 13.6 WNW 14.5 0.0 0.0
03:08 11.0 8.9 87 1034.2 10.7 E 14.5 0.0 0.0
03:09 11.0 8.9 87 1034.2 9.8 NE 14.5 0.0 0.0
03:10 11.0 8.9 87 1034.2 7.6 NE 13.6 0.0 0.0
03:11 11.0 8.9 87 1034.3 3.8 NW 13.6 0.0 0.0
03:12 11.0 8.9 87 1034.3 9.2 SE 13.6 0.0 0.0
03:13 11.0 8.9 87 1034.4 9.8 NW 13.6 0.0 0.0
03:14 11.0 8.9 87 1034.3 8.3 NW 13.6 0.0 0.0
03:15 11.0 8.9 87 1034.3 9.2 N 13.6 0.0 0.0
03:16 11.0 8.9 87 1034.3 6.9 N 13.6 0.0 0.0
03:17 11.0 8.9 87 1034.2 5.4 NW 10.7 0.0 0.0
03:18 11.0 8.9 87 1034.3 9.2 NW 9.8 0.0 0.0
03:20 11.0 8.9 87 1034.2 11.4 NE 12.1 0.0 0.0
03:21 10.9 8.8 87 1034.2 12.1 SE 12.1 0.0 0.0
03:22 10.9 8.8 87 1034.3 7.6 N 12.1 0.0 0.0
03:23 10.9 8.8 87 1034.2 6.9 N 12.1 0.0 0.0
03:24 11.0 8.9 87 1034.2 10.7 NNW 12.1 0.0 0.0
03:25 10.9 8.8 87 1034.3 6.9 NW 12.1 0.0 0.0
03:26 10.9 8.8 87 1034.4 8.3 NW 12.1 0.0 0.0
03:27 10.9 8.8 87 1034.3 8.3 WNW 12.1 0.0 0.0
03:28 10.9 8.8 87 1034.2 6.9 NW 12.1 0.0 0.0
03:29 10.9 8.8 87 1034.3 10.7 NNW 12.1 0.0 0.0
03:30 10.9 8.8 87 1034.3 7.6 NE 12.1 0.0 0.0
03:31 10.9 8.8 87 1034.3 5.4 N 12.1 0.0 0.0
03:32 10.9 8.8 87 1034.4 5.4 N 10.7 0.0 0.0
03:33 10.9 8.8 87 1034.3 7.6 WNW 10.7 0.0 0.0
03:34 10.9 8.8 87 1034.4 5.4 WNW 10.7 0.0 0.0
03:35 10.9 8.8 87 1034.4 7.6 NW 10.7 0.0 0.0
03:36 10.8 8.7 87 1034.3 7.6 NW 10.7 0.0 0.0
03:37 10.8 8.7 87 1034.3 9.8 NE 10.7 0.0 0.0
03:39 10.8 8.7 87 1034.4 3.8 N 9.8 0.0 0.0
03:40 10.8 8.7 87 1034.4 8.3 NW 9.8 0.0 0.0
03:41 10.8 8.7 87 1034.5 6.0 NW 9.8 0.0 0.0
03:42 10.8 8.7 87 1034.4 6.9 NW 9.8 0.0 0.0
03:43 10.8 8.7 87 1034.6 6.9 NW 9.8 0.0 0.0
03:44 10.8 8.7 87 1034.6 5.4 N 9.8 0.0 0.0
03:45 10.8 8.7 87 1034.6 8.3 NW 9.8 0.0 0.0
03:46 10.7 8.6 87 1034.6 5.4 N 9.8 0.0 0.0
03:47 10.7 8.6 87 1034.6 9.2 NE 9.8 0.0 0.0
03:48 10.7 8.6 87 1034.4 9.2 N 9.2 0.0 0.0
03:49 10.7 8.6 87 1034.6 9.2 NE 9.2 0.0 0.0
03:50 10.7 8.6 87 1034.7 7.6 NE 9.2 0.0 0.0
03:51 10.7 8.6 87 1034.8 4.5 NW 9.2 0.0 0.0
03:52 10.7 8.6 87 1034.6 7.6 N 9.2 0.0 0.0
03:53 10.7 8.6 87 1034.5 9.2 N 9.2 0.0 0.0
03:54 10.7 8.6 87 1034.8 9.8 E 9.8 0.0 0.0
03:55 10.7 8.6 87 1034.8 6.0 N 9.8 0.0 0.0
03:56 10.6 8.5 87 1034.8 6.9 E 9.8 0.0 0.0
03:57 10.6 8.5 87 1034.6 5.4 N 9.8 0.0 0.0
03:59 10.6 8.5 87 1034.7 5.4 NE 9.8 0.0 0.0
04:00 10.6 8.5 87 1034.7 6.9 NE 9.8 0.0 0.0
04:01 10.6 8.5 87 1034.7 6.9 NE 9.8 0.0 0.0
04:02 10.6 8.5 87 1034.7 8.3 NW 9.8 0.0 0.0
04:03 10.6 8.5 87 1034.7 8.3 NW 9.8 0.0 0.0
04:04 10.6 8.5 87 1034.5 12.1 NW 12.1 0.0 0.0
04:05 10.5 8.4 87 1034.7 8.3 NNW 12.1 0.0 0.0
04:06 10.5 8.4 87 1034.8 6.0 N 12.1 0.0 0.0
04:07 10.5 8.4 87 1034.9 6.9 WNW 12.1 0.0 0.0
04:08 10.5 8.4 87 1034.8 7.6 N 12.1 0.0 0.0
04:09 10.5 8.4 87 1034.8 6.9 NE 12.1 0.0 0.0
04:10 10.5 8.4 87 1034.8 6.9 NE 12.1 0.0 0.0
04:11 10.5 8.4 87 1034.8 6.9 NW 12.1 0.0 0.0
04:12 10.5 8.4 87 1034.8 8.3 NE 12.1 0.0 0.0
04:13 10.5 8.4 87 1034.7 8.3 NE 12.1 0.0 0.0
04:14 10.5 8.4 87 1034.8 6.9 NE 9.2 0.0 0.0
04:15 10.5 8.4 87 1034.9 6.9 E 9.2 0.0 0.0
04:16 10.4 8.3 87 1034.9 8.3 N 9.2 0.0 0.0
04:18 10.4 8.3 87 1034.7 5.4 NE 9.2 0.0 0.0
04:19 10.4 8.3 87 1034.7 6.0 N 9.2 0.0 0.0
04:20 10.3 8.2 87 1034.8 6.0 N 9.2 0.0 0.0
04:21 10.3 8.2 87 1034.8 6.0 N 9.2 0.0 0.0
04:22 10.4 8.3 87 1034.9 7.6 N 9.2 0.0 0.0
04:23 10.3 8.2 87 1034.9 8.3 ENE 8.3 0.0 0.0
04:24 10.3 8.2 87 1034.8 6.9 N 8.3 0.0 0.0
04:25 10.3 8.2 87 1034.8 6.0 NE 8.3 0.0 0.0
04:26 10.3 8.2 87 1034.9 3.1 NE 8.3 0.0 0.0
04:27 10.3 8.2 87 1034.9 6.9 SW 8.3 0.0 0.0
04:28 10.3 8.2 87 1034.9 5.4 NE 8.3 0.0 0.0
04:29 10.3 8.2 87 1034.8 6.9 NE 8.3 0.0 0.0
04:30 10.3 8.2 87 1034.9 6.0 N 8.3 0.0 0.0
04:31 10.3 8.2 87 1034.9 4.5 N 8.3 0.0 0.0
04:32 10.2 8.1 87 1034.9 5.4 N 8.3 0.0 0.0
04:33 10.2 8.1 87 1035.0 7.6 N 8.3 0.0 0.0
04:34 10.2 8.1 87 1034.9 4.5 NW 8.3 0.0 0.0
04:35 10.2 8.1 87 1034.9 8.3 NE 8.3 0.0 0.0
04:37 10.2 8.1 87 1035.0 6.0 N 8.3 0.0 0.0
04:38 10.2 8.1 87 1034.9 10.7 N 10.7 0.0 0.0
04:39 10.2 8.1 87 1035.0 9.8 NW 10.7 0.0 0.0
04:40 10.2 8.1 87 1035.0 7.6 ENE 10.7 0.0 0.0
04:41 10.2 8.1 87 1035.0 8.3 NE 10.7 0.0 0.0
04:42 10.2 8.1 87 1035.1 8.3 NE 10.7 0.0 0.0
04:43 10.2 8.1 87 1035.0 6.9 NE 10.7 0.0 0.0
04:44 10.2 8.1 87 1034.9 7.6 NW 10.7 0.0 0.0
04:45 10.3 8.2 87 1035.0 9.2 N 10.7 0.0 0.0
04:46 10.3 8.2 87 1035.0 4.5 NE 10.7 0.0 0.0
04:47 10.3 8.2 87 1034.9 5.4 N 10.7 0.0 0.0
04:48 10.3 8.2 87 1035.2 4.5 NE 10.7 0.0 0.0
04:49 10.3 8.2 87 1035.2 6.0 N 9.2 0.0 0.0
04:50 10.3 8.2 87 1035.1 8.3 NW 9.2 0.0 0.0
04:51 10.3 8.2 87 1035.2 8.3 N 9.2 0.0 0.0
04:52 10.3 8.2 87 1035.1 6.0 NE 9.2 0.0 0.0
04:53 10.3 8.2 87 1035.1 6.0 NE 9.2 0.0 0.0
04:54 10.3 8.2 87 1035.1 6.9 W 9.2 0.0 0.0
04:56 10.4 8.3 87 1035.2 7.6 N 8.3 0.0 0.0
04:57 10.4 8.3 87 1035.0 7.6 NE 8.3 0.0 0.0
04:58 10.4 8.3 87 1035.2 6.0 W 8.3 0.0 0.0
04:59 10.3 8.2 87 1035.0 6.9 N 8.3 0.0 0.0
05:00 10.4 8.3 87 1034.9 6.9 WNW 8.3 0.0 0.0
05:01 10.3 8.2 87 1035.2 5.4 NE 8.3 0.0 0.0
05:02 10.3 8.2 87 1035.0 5.4 N 7.6 0.0 0.0
05:03 10.3 8.2 87 1035.0 5.4 N 7.6 0.0 0.0
05:04 10.3 8.2 87 1035.0 5.4 N 7.6 0.0 0.0
05:05 10.3 8.1 86 1035.0 5.4 N 7.6 0.0 0.0
05:06 10.3 8.2 87 1035.1 6.9 NE 7.6 0.0 0.0
05:07 10.2 8.0 86 1035.0 6.0 N 7.6 0.0 0.0
05:08 10.2 8.0 86 1035.0 5.4 NW 6.9 0.0 0.0
05:09 10.2 8.0 86 1034.9 4.5 N 6.9 0.0 0.0
05:10 10.2 8.0 86 1035.1 7.6 NE 7.6 0.0 0.0
05:11 10.2 8.0 86 1035.0 9.2 NW 9.2 0.0 0.0
05:12 10.1 7.9 86 1035.1 3.8 N 9.2 0.0 0.0
05:13 10.1 7.9 86 1035.2 6.0 N 9.2 0.0 0.0
05:14 10.1 7.9 86 1035.2 6.9 N 9.2 0.0 0.0
05:15 10.1 7.9 86 1035.2 9.8 N 9.8 0.0 0.0
05:17 10.0 7.8 86 1035.3 8.3 N 9.8 0.0 0.0
05:18 10.0 7.8 86 1035.2 6.0 NE 9.8 0.0 0.0
05:19 10.0 7.8 86 1035.3 5.4 N 9.8 0.0 0.0
05:20 10.0 7.8 86 1035.3 8.3 N 9.8 0.0 0.0
05:21 10.0 7.8 86 1035.3 7.6 NE 9.8 0.0 0.0
05:22 10.0 7.8 86 1035.3 9.2 NW 9.8 0.0 0.0
05:23 10.0 7.8 86 1035.3 10.7 NE 10.7 0.0 0.0
05:24 9.9 7.7 86 1035.2 6.9 NE 10.7 0.0 0.0
05:25 9.9 7.7 86 1035.2 7.6 NE 10.7 0.0 0.0
05:26 9.9 7.7 86 1035.3 6.9 W 10.7 0.0 0.0
05:27 9.9 7.7 86 1035.3 8.3 NE 10.7 0.0 0.0
05:28 9.9 7.7 86 1035.4 4.5 NE 10.7 0.0 0.0
05:29 9.9 7.7 86 1035.3 7.6 N 10.7 0.0 0.0
05:30 9.9 7.7 86 1035.3 7.6 NW 10.7 0.0 0.0
05:31 9.9 7.7 86 1035.3 6.9 NE 10.7 0.0 0.0
05:32 9.9 7.7 86 1035.3 7.6 NW 10.7 0.0 0.0
05:33 9.9 7.7 86 1035.4 8.3 NW 8.3 0.0 0.0
05:34 9.9 7.7 86 1035.5 6.0 N 8.3 0.0 0.0
05:36 9.8 7.6 86 1035.4 4.5 NE 8.3 0.0 0.0
05:37 9.8 7.6 86 1035.3 8.3 ENE 8.3 0.0 0.0
05:38 9.8 7.6 86 1035.3 8.3 ENE 8.3 0.0 0.0
05:39 9.8 7.6 86 1035.5 4.5 N 8.3 0.0 0.0
05:40 9.8 7.6 86 1035.5 5.4 S 8.3 0.0 0.0
05:41 9.8 7.6 86 1035.6 6.9 NNE 8.3 0.0 0.0
05:42 9.8 7.6 86 1035.5 8.3 NE 8.3 0.0 0.0
05:43 9.7 7.5 86 1035.5 3.8 NE 8.3 0.0 0.0
05:44 9.7 7.5 86 1035.4 4.5 NE 8.3 0.0 0.0
05:45 9.7 7.5 86 1035.4 6.0 N 8.3 0.0 0.0
05:46 9.7 7.5 86 1035.4 4.5 NE 8.3 0.0 0.0
05:47 9.7 7.5 86 1035.6 6.9 SW 8.3 0.0 0.0
05:48 9.7 7.5 86 1035.6 6.0 NE 8.3 0.0 0.0
05:49 9.7 7.5 86 1035.5 5.4 NW 8.3 0.0 0.0
05:50 9.6 7.4 86 1035.5 5.4 NE 8.3 0.0 0.0
05:51 9.6 7.4 86 1035.5 8.3 E 8.3 0.0 0.0
05:52 9.6 7.4 86 1035.7 11.4 N 11.4 0.0 0.0
05:53 9.6 7.4 86 1035.6 6.9 NE 11.4 0.0 0.0
05:54 9.6 7.4 86 1035.5 4.5 NE 11.4 0.0 0.0
05:56 9.6 7.2 85 1035.5 6.0 E 11.4 0.0 0.0
05:57 9.6 7.2 85 1035.5 6.0 E 11.4 0.0 0.0
05:58 9.6 7.4 86 1035.7 6.9 N 11.4 0.0 0.0
05:59 9.6 7.4 86 1035.7 5.4 ENE 11.4 0.0 0.0
06:00 9.5 7.3 86 1035.7 9.2 N 11.4 0.0 0.0
06:01 9.6 7.4 86 1035.7 8.3 N 11.4 0.0 0.0
06:02 9.5 7.3 86 1035.8 3.1 N 11.4 0.0 0.0
06:03 9.5 7.3 86 1035.7 6.0 NE 11.4 0.0 0.0
06:04 9.5 7.3 86 1035.7 6.0 NE 9.2 0.0 0.0
06:05 9.5 7.3 86 1035.7 6.0 NE 9.2 0.0 0.0
06:06 9.5 7.3 86 1035.8 6.0 NE 9.2 0.0 0.0
06:07 9.5 7.3 86 1035.8 6.0 NE 9.2 0.0 0.0
06:08 9.5 7.3 86 1035.8 6.0 N 9.2 0.0 0.0
06:09 9.5 7.1 85 1036.0 7.6 N 9.2 0.0 0.0
06:10 9.5 7.1 85 1036.0 6.0 N 8.3 0.0 0.0
06:11 9.5 7.3 86 1036.0 3.8 N 7.6 0.0 0.0
06:12 9.4 7.2 86 1035.9 6.9 NW 7.6 0.0 0.0
06:13 9.4 7.0 85 1035.8 4.5 N 7.6 0.0 0.0
06:14 9.4 7.0 85 1035.9 4.5 NW 7.6 0.0 0.0
06:16 9.4 7.0 85 1036.0 4.5 NNE 7.6 0.0 0.0
06:17 9.4 7.0 85 1036.0 4.5 NNE 7.6 0.0 0.0
06:18 9.4 7.0 85 1036.1 6.0 N 7.6 0.0 0.0
06:19 9.4 7.0 85 1036.2 4.5 NW 7.6 0.0 0.0
06:20 9.4 7.2 86 1036.3 7.6 NE 7.6 0.0 0.0
06:21 9.4 7.0 85 1036.1 6.9 SE 7.6 0.0 0.0
06:22 9.4 7.2 86 1036.1 3.8 N 7.6 0.0 0.0
06:23 9.4 7.2 86 1036.2 6.9 NE 7.6 0.0 0.0
06:24 9.4 7.0 85 1036.1 6.9 NNE 7.6 0.0 0.0
06:25 9.4 7.2 86 1036.2 7.6 NE 7.6 0.0 0.0
06:26 9.4 7.2 86 1036.1 9.2 NE 9.2 0.0 0.0
06:27 9.4 7.2 86 1036.1 8.3 SW 9.2 0.0 0.0
06:28 9.4 7.0 85 1036.2 9.2 E 9.8 0.0 0.0
06:29 9.4 7.2 86 1036.3 7.6 N 9.8 0.0 0.0
06:30 9.4 7.2 86 1036.2 6.0 N 9.8 0.0 0.0
06:31 9.4 7.2 86 1036.3 7.6 NE 9.8 0.0 0.0
06:32 9.4 7.2 86 1036.3 4.5 NE 9.8 0.0 0.0
06:33 9.4 7.2 86 1036.1 8.3 NW 9.8 0.0 0.0
06:35 9.4 7.2 86 1036.3 7.6 E 11.4 0.0 0.0
06:36 9.4 7.2 86 1036.3 10.7 N 11.4 0.0 0.0
06:37 9.5 7.3 86 1036.3 7.6 NW 11.4 0.0 0.0
06:38 9.5 7.3 86 1036.5 5.4 N 11.4 0.0 0.0
06:39 9.5 7.3 86 1036.4 4.5 NE 11.4 0.0 0.0
06:40 9.5 7.3 86 1036.3 5.4 N 11.4 0.0 0.0
06:41 9.5 7.3 86 1036.3 10.7 NE 11.4 0.0 0.0
06:42 9.5 7.3 86 1036.3 5.4 ESE 11.4 0.0 0.0
06:43 9.5 7.3 86 1036.3 7.6 NW 11.4 0.0 0.0
06:44 9.5 7.3 86 1036.5 7.6 NW 11.4 0.0 0.0
06:45 9.5 7.3 86 1036.3 6.9 SE 10.7 0.0 0.0
06:46 9.5 7.3 86 1036.5 6.9 NE 10.7 0.0 0.0
06:47 9.5 7.3 86 1036.4 6.0 N 10.7 0.0 0.0
06:48 9.5 7.3 86 1036.5 6.9 N 10.7 0.0 0.0
06:49 9.4 7.2 86 1036.4 6.9 N 10.7 0.0 0.0
06:50 9.4 7.2 86 1036.4 4.5 N 10.7 0.0 0.0
06:51 9.4 7.2 86 1036.4 6.0 N 9.8 0.0 0.0
06:52 9.4 7.2 86 1036.4 5.4 NE 7.6 0.0 0.0
06:54 9.4 7.0 85 1036.6 3.8 N 6.9 0.0 0.0
06:55 9.4 7.2 86 1036.5 9.2 NW 9.2 0.0 0.0
06:56 9.4 7.2 86 1036.3 4.5 E 9.2 0.0 0.0
06:57 9.4 7.0 85 1036.3 3.8 SSW 9.2 0.0 0.0
06:58 9.4 7.2 86 1036.6 7.6 NW 9.2 0.0 0.0
06:59 9.3 7.1 86 1036.6 5.4 N 9.2 0.0 0.0
07:00 9.4 7.0 85 1036.5 8.3 NW 9.2 0.0 0.0
07:01 9.4 7.0 85 1036.4 6.0 N 9.2 0.0 0.0
07:02 9.3 6.9 85 1036.6 5.4 S 12.1 0.0 0.0
07:03 9.3 6.9 85 1036.7 5.4 S 12.1 0.0 0.0
07:04 9.3 6.9 85 1036.7 5.4 S 12.1 0.0 0.0
07:05 9.3 6.9 85 1036.7 5.4 S 12.1 0.0 0.0
07:06 9.3 6.9 85 1036.6 5.4 S 12.1 0.0 0.0
07:07 9.3 6.9 85 1036.7 5.4 S 12.1 0.0 0.0
07:08 9.3 6.9 85 1036.7 6.0 NW 12.1 0.0 0.0
07:09 9.3 6.9 85 1036.7 6.0 NE 12.1 0.0 0.0
07:10 9.3 6.9 85 1036.7 6.0 N 12.1 0.0 0.0
07:11 9.3 6.9 85 1036.7 6.0 NE 12.1 0.0 0.0
07:12 9.3 6.9 85 1036.7 6.9 NE 6.9 0.0 0.0
07:13 9.3 6.9 85 1036.7 6.9 E 6.9 0.0 0.0
07:14 9.3 6.9 85 1036.8 6.9 NNE 6.9 0.0 0.0
07:16 9.2 6.8 85 1036.7 6.0 NE 6.9 0.0 0.0
07:17 9.2 6.8 85 1036.7 6.0 NE 6.9 0.0 0.0
07:18 9.2 6.8 85 1036.8 6.0 N 6.9 0.0 0.0
07:19 9.2 6.8 85 1036.8 6.0 N 6.9 0.0 0.0
07:20 9.2 6.8 85 1037.0 6.0 N 6.9 0.0 0.0
07:21 9.2 6.8 85 1036.8 8.3 NE 8.3 0.0 0.0
07:22 9.2 6.8 85 1036.8 7.6 N 8.3 0.0 0.0
07:23 9.2 6.8 85 1037.0 5.4 NE 8.3 0.0 0.0
07:24 9.2 6.8 85 1036.8 4.5 NW 8.3 0.0 0.0
07:25 9.1 6.7 85 1036.9 5.4 N 8.3 0.0 0.0
07:26 9.1 6.7 85 1036.9 6.0 ENE 8.3 0.0 0.0
07:27 9.1 6.7 85 1036.8 8.3 NE 8.3 0.0 0.0
07:28 9.1 6.7 85 1037.0 5.4 E 8.3 0.0 0.0
07:29 9.1 6.7 85 1036.9 6.9 NE 8.3 0.0 0.0
07:31 9.0 6.6 85 1036.9 5.4 NW 8.3 0.0 0.0
07:32 9.1 6.7 85 1037.1 5.4 WSW 8.3 0.0 0.0
07:33 9.0 6.6 85 1037.2 6.9 N 8.3 0.0 0.0
07:34 9.0 6.6 85 1037.1 3.8 NE 8.3 0.0 0.0
07:35 9.0 6.6 85 1037.1 4.5 N 8.3 0.0 0.0
07:36 9.0 6.6 85 1037.1 4.5 NE 8.3 0.0 0.0
07:37 8.9 6.5 85 1037.2 9.2 NE 9.2 0.0 0.0
07:38 8.9 6.5 85 1037.3 5.4 E 9.2 0.0 0.0
07:39 8.9 6.5 85 1037.3 5.4 E 9.2 0.0 0.0
07:40 8.9 6.5 85 1037.2 6.9 NW 9.2 0.0 0.0
07:41 8.8 6.6 86 1037.4 7.6 NE 9.2 0.0 0.0
07:42 8.8 6.6 86 1037.3 9.8 NE 9.8 0.0 0.0
07:43 8.8 6.6 86 1037.4 6.0 NE 9.8 0.0 0.0
07:44 8.8 6.6 86 1037.3 6.0 N 9.8 0.0 0.0
07:46 8.7 6.5 86 1037.3 6.0 SE 9.8 0.0 0.0
07:47 8.7 6.5 86 1037.4 6.0 E 9.8 0.0 0.0
07:48 8.7 6.5 86 1037.4 6.9 NE 9.8 0.0 0.0
07:49 8.7 6.5 86 1037.3 6.0 N 9.8 0.0 0.0
07:50 8.7 6.5 86 1037.5 5.4 NE 9.8 0.0 0.0
07:51 8.7 6.5 86 1037.4 5.4 NE 9.8 0.0 0.0
07:52 8.6 6.4 86 1037.5 6.0 NW 6.9 0.0 0.0
07:53 8.6 6.4 86 1037.4 5.4 N 6.9 0.0 0.0
07:54 8.6 6.4 86 1037.4 5.4 NE 6.9 0.0 0.0
07:55 8.6 6.4 86 1037.3 6.0 NE 6.9 0.0 0.0
07:56 8.6 6.4 86 1037.3 5.4 NE 6.9 0.0 0.0
07:57 8.5 6.3 86 1037.5 3.8 NE 6.9 0.0 0.0
07:58 8.5 6.3 86 1037.4 4.5 N 6.9 0.0 0.0
07:59 8.5 6.3 86 1037.3 5.4 NE 6.0 0.0 0.0
08:00 8.5 6.3 86 1037.4 4.5 E 6.0 0.0 0.0
08:01 8.4 6.2 86 1037.4 5.4 NE 6.0 0.0 0.0
08:02 8.4 6.2 86 1037.4 3.1 N 6.0 0.0 0.0
08:03 8.4 6.2 86 1037.5 3.1 N 6.0 0.0 0.0
08:04 8.4 6.2 86 1037.4 3.1 N 6.0 0.0 0.0
08:05 8.4 6.2 86 1037.5 3.1 N 6.0 0.0 0.0
08:06 8.4 6.2 86 1037.5 3.1 N 6.0 0.0 0.0
08:07 8.4 6.2 86 1037.4 3.1 N 6.0 0.0 0.0
08:08 8.4 6.2 86 1037.4 3.1 N 6.0 0.0 0.0
08:09 8.2 6.0 86 1037.5 6.9 NW 6.9 0.0 0.0
08:10 8.2 6.2 87 1037.6 8.3 N 8.3 0.0 0.0
08:11 8.2 6.2 87 1037.6 8.3 NE 8.3 0.0 0.0
08:12 8.2 6.2 87 1037.6 7.6 N 8.3 0.0 0.0
08:13 8.2 6.2 87 1037.4 6.0 NE 8.3 0.0 0.0
08:14 8.1 6.1 87 1037.6 6.0 NE 8.3 0.0 0.0
08:16 8.1 6.1 87 1037.6 5.4 NE 8.3 0.0 0.0
08:17 8.1 6.1 87 1037.4 4.5 NE 8.3 0.0 0.0
08:18 8.1 6.1 87 1037.8 6.9 NE 8.3 0.0 0.0
08:19 8.1 6.1 87 1037.7 6.9 NE 8.3 0.0 0.0
08:20 8.1 6.1 87 1037.6 6.0 NNE 8.3 0.0 0.0
08:21 8.1 6.1 87 1037.7 6.9 NE 7.6 0.0 0.0
08:22 8.1 6.1 87 1037.7 6.9 ENE 7.6 0.0 0.0
08:23 8.1 6.1 87 1037.7 7.6 NE 7.6 0.0 0.0
08:24 8.1 6.1 87 1037.7 7.6 NE 7.6 0.0 0.0
08:25 8.1 6.1 87 1037.8 6.9 NE 7.6 0.0 0.0
08:26 8.1 6.1 87 1037.6 9.2 WNW 9.2 0.0 0.0
08:27 8.1 6.1 87 1037.7 7.6 N 9.2 0.0 0.0
08:28 8.1 6.1 87 1037.7 4.5 N 9.2 0.0 0.0
08:29 8.1 6.1 87 1037.6 6.0 N 9.2 0.0 0.0
08:30 8.1 6.1 87 1037.7 6.0 NE 9.2 0.0 0.0
08:31 8.1 6.1 87 1037.8 8.3 E 9.2 0.0 0.0
08:32 8.1 6.1 87 1037.8 6.0 NE 9.2 0.0 0.0
08:33 8.1 6.1 87 1037.7 5.4 N 9.2 0.0 0.0
08:34 8.1 6.1 87 1037.8 6.9 NE 9.2 0.0 0.0
08:35 8.0 6.0 87 1037.7 7.6 E 9.2 0.0 0.0
08:36 8.1 6.1 87 1037.8 5.4 NE 8.3 0.0 0.0
08:37 8.0 6.0 87 1037.8 6.0 NW 8.3 0.0 0.0
08:38 8.0 6.0 87 1037.7 5.4 N 8.3 0.0 0.0
08:39 8.0 6.0 87 1037.7 5.4 N 8.3 0.0 0.0
08:40 8.0 6.0 87 1037.8 6.9 NE 8.3 0.0 0.0
08:41 8.0 6.0 87 1037.8 5.4 NE 8.3 0.0 0.0
08:42 8.0 6.0 87 1038.0 6.0 N 7.6 0.0 0.0
08:43 8.0 6.0 87 1037.9 5.4 NE 7.6 0.0 0.0
08:44 8.0 6.0 87 1038.0 7.6 NW 7.6 0.0 0.0
08:45 8.0 6.0 87 1038.0 8.3 NE 8.3 0.0 0.0
08:46 8.0 6.0 87 1037.9 9.2 NW 9.2 0.0 0.0
08:47 8.0 6.0 87 1038.0 7.6 N 9.2 0.0 0.0
08:48 8.0 6.0 87 1037.9 6.9 E 9.2 0.0 0.0
08:49 8.0 6.0 87 1037.9 7.6 N 9.2 0.0 0.0
08:50 8.1 6.1 87 1038.1 6.9 ENE 9.2 0.0 0.0
08:51 8.1 6.1 87 1038.1 7.6 E 9.2 0.0 0.0
09:31 8.7 6.7 87 1038.7 9.8 NNE 9.8 0.0 0.0
09:32 8.8 6.8 87 1038.8 10.7 N 10.7 0.0 0.0
09:33 8.8 6.8 87 1038.6 9.2 N 10.7 0.0 0.0
09:34 8.8 6.6 86 1038.7 5.4 N 10.7 0.0 0.0
09:35 8.9 6.7 86 1038.7 9.2 NE 10.7 0.0 0.0
09:36 8.9 6.7 86 1038.6 9.8 NE 10.7 0.0 0.0
09:37 8.9 6.7 86 1038.7 8.3 NE 10.7 0.0 0.0
09:38 8.9 6.7 86 1038.7 7.6 NE 10.7 0.0 0.0
09:39 8.9 6.7 86 1038.7 7.6 NE 10.7 0.0 0.0
09:40 9.0 6.8 86 1038.7 6.0 N 10.7 0.0 0.0
09:41 9.0 6.8 86 1038.7 11.4 NE 11.4 0.0 0.0
09:42 9.0 6.8 86 1038.7 9.2 N 11.4 0.0 0.0
09:43 9.0 6.8 86 1038.8 12.1 N 12.1 0.0 0.0
09:44 9.1 6.9 86 1038.7 9.2 N 12.1 0.0 0.0
09:45 9.1 6.9 86 1038.8 8.3 NE 12.1 0.0 0.0
09:46 9.1 6.9 86 1038.8 10.7 N 12.1 0.0 0.0
09:47 9.2 7.0 86 1038.8 13.0 NE 13.0 0.0 0.0
09:48 9.2 7.0 86 1038.9 11.4 NW 13.0 0.0 0.0
09:49 9.2 7.0 86 1038.9 9.8 N 13.0 0.0 0.0
09:50 9.2 7.0 86 1038.8 9.2 NE 13.0 0.0 0.0
09:51 9.3 7.1 86 1038.9 9.8 NE 13.0 0.0 0.0
09:52 9.3 6.9 85 1038.9 10.7 WNW 13.0 0.0 0.0
09:53 9.3 6.9 85 1039.0 9.8 NE 13.0 0.0 0.0
09:54 9.4 7.0 85 1038.9 8.3 N 14.5 0.0 0.0
09:55 9.4 7.0 85 1038.9 11.4 NNE 14.5 0.0 0.0
09:56 9.4 7.0 85 1039.0 9.8 NE 14.5 0.0 0.0
09:57 9.5 7.1 85 1039.0 9.2 N 14.5 0.0 0.0
09:58 9.5 7.1 85 1039.0 10.7 NE 14.5 0.0 0.0
09:59 9.5 7.1 85 1038.9 9.2 N 14.5 0.0 0.0
10:00 9.5 7.1 85 1038.9 9.2 NE 14.5 0.0 0.0
10:01 9.5 7.1 85 1038.8 10.7 NE 14.5 0.0 0.0
10:02 9.6 7.2 85 1038.8 9.8 NE 14.5 0.0 0.0
10:03 9.6 7.2 85 1038.8 8.3 NE 14.5 0.0 0.0
10:04 9.6 7.2 85 1038.8 7.6 NE 11.4 0.0 0.0
10:05 9.7 7.3 85 1038.8 12.1 NW 12.1 0.0 0.0
10:06 9.7 7.3 85 1038.9 7.6 N 12.1 0.0 0.0
10:07 9.8 7.4 85 1038.9 7.6 NE 12.1 0.0 0.0
10:08 9.8 7.4 85 1039.0 9.2 WNW 12.1 0.0 0.0
10:09 9.8 7.2 84 1039.0 10.7 NE 12.1 0.0 0.0
10:10 9.9 7.5 85 1038.8 11.4 N 12.1 0.0 0.0
10:11 9.9 7.3 84 1038.8 9.2 NE 12.1 0.0 0.0
10:12 9.9 7.3 84 1039.1 12.1 N 12.1 0.0 0.0
10:13 10.0 7.4 84 1038.8 9.8 NE 12.1 0.0 0.0
10:14 10.0 7.4 84 1038.9 13.0 NE 13.0 0.0 0.0
10:15 10.0 7.4 84 1038.8 11.4 NE 13.0 0.0 0.0
10:16 10.1 7.5 84 1038.9 10.7 NE 13.0 0.0 0.0
10:17 10.1 7.5 84 1038.8 9.8 N 13.0 0.0 0.0
10:18 10.1 7.5 84 1039.0 8.3 N 13.0 0.0 0.0
10:19 10.1 7.5 84 1039.0 10.7 N 13.0 0.0 0.0
10:20 10.1 7.5 84 1038.9 14.5 NE 14.5 0.0 0.0
10:21 10.2 7.4 83 1039.0 13.0 NW 14.5 0.0 0.0
10:22 10.2 7.4 83 1038.9 12.1 NE 14.5 0.0 0.0
10:23 10.3 7.5 83 1038.8 10.7 NNW 14.5 0.0 0.0
10:24 10.3 7.5 83 1038.8 11.4 N 14.5 0.0 0.0
10:25 10.3 7.5 83 1038.8 13.0 N 14.5 0.0 0.0
10:26 10.3 7.5 83 1038.9 12.1 WNW 14.5 0.0 0.0
10:27 10.3 7.5 83 1038.9 11.4 NE 14.5 0.0 0.0
10:28 10.4 7.6 83 1038.9 13.0 NE 14.5 0.0 0.0
10:29 10.4 7.6 83 1038.9 8.3 NE 14.5 0.0 0.0
10:30 10.4 7.6 83 1038.9 11.4 SSW 14.5 0.0 0.0
10:31 10.5 7.7 83 1039.0 9.8 N 13.0 0.0 0.0
10:32 10.5 7.7 83 1039.1 9.8 NE 13.0 0.0 0.0
10:33 10.5 7.6 82 1038.9 15.2 N 15.2 0.0 0.0
10:34 10.5 7.6 82 1038.9 10.7 N 15.2 0.0 0.0
10:35 10.6 7.7 82 1038.9 10.7 N 15.2 0.0 0.0
10:36 10.6 7.7 82 1039.0 7.6 N 15.2 0.0 0.0
10:37 10.6 7.7 82 1039.0 13.0 N 15.2 0.0 0.0
10:38 10.7 7.8 82 1038.9 9.8 WNW 15.2 0.0 0.0
10:39 10.7 7.8 82 1039.0 16.8 N 16.8 0.0 0.0
10:40 10.7 7.8 82 1038.9 12.1 NE 16.8 0.0 0.0
10:41 10.8 7.9 82 1038.9 9.2 NE 16.8 0.0 0.0
10:42 10.8 7.7 81 1038.9 11.4 N 16.8 0.0 0.0
10:43 10.9 7.8 81 1038.8 8.3 NE 16.8 0.0 0.0
10:44 10.9 7.8 81 1038.9 13.6 SE 16.8 0.0 0.0
10:45 10.9 7.8 81 1038.9 8.3 NW 16.8 0.0 0.0
10:46 11.0 7.9 81 1038.8 9.8 SE 16.8 0.0 0.0
10:47 11.0 7.9 81 1038.8 9.8 SE 16.8 0.0 0.0
10:48 11.0 7.9 81 1038.9 16.8 NE 16.8 0.0 0.0
10:49 11.1 8.0 81 1038.8 14.5 NE 16.8 0.0 0.0
10:50 11.2 8.1 81 1038.8 8.3 N 16.8 0.0 0.0
10:51 11.2 7.9 80 1038.9 9.8 N 16.8 0.0 0.0
10:52 11.3 8.0 80 1038.9 8.3 N 16.8 0.0 0.0
10:53 11.4 7.9 79 1038.8 12.1 NE 16.8 0.0 0.0
10:54 11.4 7.9 79 1038.8 9.2 NW 16.8 0.0 0.0
10:55 11.5 8.0 79 1038.8 11.4 S 16.8 0.0 0.0
10:56 11.6 7.9 78 1039.0 17.4 N 17.4 0.0 0.0
10:57 11.6 7.7 77 1038.8 14.5 NE 17.4 0.0 0.0
10:58 11.7 7.8 77 1038.9 13.6 ENE 17.4 0.0 0.0
10:59 11.7 7.8 77 1038.8 11.4 N 17.4 0.0 0.0
11:00 11.8 7.9 77 1039.0 13.0 NE 17.4 0.0 0.0
11:01 11.8 7.7 76 1038.8 13.0 NNW 17.4 0.0 0.0
11:02 11.8 7.7 76 1038.8 17.4 NE 17.4 0.0 0.0
11:03 11.9 7.8 76 1038.9 13.0 N 17.4 0.0 0.0
11:04 11.9 7.8 76 1039.0 13.0 N 17.4 0.0 0.0
11:05 12.0 7.9 76 1038.9 10.7 N 17.4 0.0 0.0
11:06 12.0 7.9 76 1039.0 10.7 NE 17.4 0.0 0.0
11:07 12.0 7.9 76 1039.0 10.7 NE 17.4 0.0 0.0
11:08 12.1 8.0 76 1039.1 9.2 N 17.4 0.0 0.0
11:09 12.1 8.0 76 1039.1 9.2 NE 17.4 0.0 0.0
11:10 12.2 8.1 76 1039.1 8.3 NE 17.4 0.0 0.0
11:11 12.2 8.1 76 1039.1 10.7 NE 17.4 0.0 0.0
11:12 12.3 8.0 75 1038.9 12.1 WNW 17.4 0.0 0.0
11:13 12.3 7.8 74 1039.2 12.1 N 13.0 0.0 0.0
11:14 12.3 8.0 75 1039.0 11.4 N 13.0 0.0 0.0
11:15 12.3 7.8 74 1038.9 14.5 NE 14.5 0.0 0.0
11:16 12.4 7.9 74 1038.9 8.3 NE 14.5 0.0 0.0
11:17 12.4 7.9 74 1038.9 9.2 N 14.5 0.0 0.0
11:19 12.6 8.1 74 1038.9 12.1 NE 14.5 0.0 0.0
11:20 12.6 7.9 73 1038.9 8.3 NE 14.5 0.0 0.0
11:21 12.7 8.2 74 1039.0 9.2 N 14.5 0.0 0.0
11:22 12.7 8.2 74 1039.0 9.2 N 14.5 0.0 0.0
11:23 12.7 8.0 73 1038.9 12.1 E 14.5 0.0 0.0
11:24 12.7 8.0 73 1039.0 12.1 N 14.5 0.0 0.0
11:25 12.8 8.1 73 1038.9 12.1 NE 13.6 0.0 0.0
11:26 12.8 8.1 73 1038.9 12.1 NE 13.6 0.0 0.0
11:27 12.8 8.1 73 1038.9 12.1 NE 13.6 0.0 0.0
11:28 12.9 8.2 73 1039.0 15.9 NE 15.9 0.0 0.0
11:29 12.9 8.0 72 1038.9 11.4 N 15.9 0.0 0.0
11:30 12.9 8.0 72 1038.9 13.0 NE 15.9 0.0 0.0
11:31 12.9 8.0 72 1039.1 8.3 E 15.9 0.0 0.0
11:32 13.0 8.1 72 1039.0 12.1 N 15.9 0.0 0.0
11:33 13.0 7.9 71 1039.1 13.6 SW 15.9 0.0 0.0
11:34 13.0 7.9 71 1039.0 8.3 SW 15.9 0.0 0.0
11:35 13.0 7.9 71 1039.0 8.3 NW 15.9 0.0 0.0
11:37 13.2 8.3 72 1039.0 9.8 NE 15.9 0.0 0.0
11:38 13.2 8.3 72 1039.1 7.6 NW 13.6 0.0 0.0
11:39 13.2 8.3 72 1038.9 6.0 NW 13.6 0.0 0.0
11:40 13.3 8.2 71 1039.0 8.3 NW 13.6 0.0 0.0
11:41 13.4 8.3 71 1039.0 9.8 E 13.6 0.0 0.0
11:42 13.5 8.1 70 1039.1 9.8 NNE 13.6 0.0 0.0
11:43 13.4 8.0 70 1039.0 13.0 ENE 13.6 0.0 0.0
11:44 13.4 8.0 70 1038.9 14.5 SW 14.5 0.0 0.0
11:45 13.4 7.6 68 1039.1 15.2 N 15.2 0.0 0.0
11:46 13.4 7.8 69 1038.9 9.2 N 15.2 0.0 0.0
11:47 13.4 7.8 69 1038.8 10.7 N 15.2 0.0 0.0
11:48 13.4 7.8 69 1038.9 10.7 N 15.2 0.0 0.0
11:49 13.4 7.8 69 1038.8 9.2 NE 15.2 0.0 0.0
11:50 13.5 7.9 69 1039.0 10.7 N 15.2 0.0 0.0
11:51 13.5 7.9 69 1038.9 10.7 N 15.2 0.0 0.0
11:52 13.5 7.7 68 1038.9 14.5 N 17.4 0.0 0.0
11:53 13.6 7.8 68 1039.0 13.0 NE 17.4 0.0 0.0
11:54 13.6 7.8 68 1039.0 13.6 NE 17.4 0.0 0.0
11:55 13.5 7.5 67 1038.9 13.0 N 17.4 0.0 0.0
11:56 13.5 7.7 68 1038.9 10.7 N 17.4 0.0 0.0
11:57 13.5 7.7 68 1039.0 14.5 NE 17.4 0.0 0.0
11:58 13.5 7.7 68 1038.9 10.7 NE 17.4 0.0 0.0
11:59 13.6 7.8 68 1039.0 12.1 N 17.4 0.0 0.0
12:00 13.6 7.8 68 1038.9 9.8 NE 17.4 0.0 0.0
12:01 13.6 7.8 68 1039.2 7.6 NE 17.4 0.0 0.0
12:02 13.6 7.8 68 1039.0 10.7 N 14.5 0.0 0.0
12:03 13.6 7.8 68 1039.1 9.2 NE 14.5 0.0 0.0
12:04 13.6 7.8 68 1039.1 11.4 N 14.5 0.0 0.0
12:05 13.6 7.6 67 1039.2 10.7 NE 14.5 0.0 0.0
12:06 13.6 7.6 67 1039.2 12.1 E 14.5 0.0 0.0
12:07 13.6 7.6 67 1039.1 11.4 N 14.5 0.0 0.0
12:08 13.6 7.6 67 1039.3 10.7 NE 13.6 0.0 0.0
12:09 13.6 7.6 67 1039.3 9.2 NE 13.6 0.0 0.0
12:10 13.6 7.6 67 1039.2 8.3 NE 13.6 0.0 0.0
12:12 13.6 7.4 66 1039.4 6.9 NE 13.6 0.0 0.0
12:13 13.7 7.7 67 1039.2 8.3 NW 13.6 0.0 0.0
12:14 13.8 7.8 67 1039.2 8.3 NW 13.6 0.0 0.0
12:15 13.8 7.8 67 1039.1 8.3 NW 13.6 0.0 0.0
12:16 13.9 7.9 67 1039.3 9.2 WNW 13.6 0.0 0.0
12:17 14.0 7.8 66 1039.4 13.6 NE 13.6 0.0 0.0
12:18 14.0 7.8 66 1039.4 13.0 N 13.6 0.0 0.0
12:19 14.0 7.8 66 1039.4 13.0 N 13.6 0.0 0.0
12:20 14.0 7.8 66 1039.4 10.7 NE 13.6 0.0 0.0
12:21 14.1 7.8 66 1039.5 13.6 NE 13.6 0.0 0.0
12:22 14.1 7.6 65 1039.4 9.8 WNW 13.6 0.0 0.0
12:23 14.1 7.8 66 1039.4 9.8 WNW 13.6 0.0 0.0
12:24 14.2 7.9 66 1039.2 9.8 NE 13.6 0.0 0.0
12:25 14.2 7.9 66 1039.4 11.4 N 13.6 0.0 0.0
12:26 14.2 7.9 66 1039.2 9.2 N 13.6 0.0 0.0
12:27 14.3 8.0 66 1039.3 13.6 NE 13.6 0.0 0.0
12:28 14.3 7.8 65 1039.3 11.4 E 13.6 0.0 0.0
12:29 14.3 7.8 65 1039.4 9.8 E 13.6 0.0 0.0
12:30 14.4 7.9 65 1039.4 8.3 NE 13.6 0.0 0.0
12:31 14.4 7.9 65 1039.5 10.7 ENE 13.6 0.0 0.0
12:32 14.4 7.9 65 1039.4 13.0 S 13.6 0.0 0.0
12:33 14.4 7.9 65 1039.5 13.0 NE 15.2 0.0 0.0
12:34 14.5 8.0 65 1039.3 7.6 NE 15.2 0.0 0.0
12:35 14.5 8.0 65 1039.4 6.9 NW 15.2 0.0 0.0
12:36 14.5 8.0 65 1039.5 7.6 NE 15.2 0.0 0.0
12:37 14.5 8.0 65 1039.4 10.7 NE 15.2 0.0 0.0
12:38 14.5 8.0 65 1039.4 8.3 N 15.2 0.0 0.0
12:39 14.5 8.0 65 1039.5 9.8 N 15.2 0.0 0.0
12:40 14.6 8.1 65 1039.4 11.4 NE 15.2 0.0 0.0
12:41 14.6 8.1 65 1039.5 11.4 NW 15.2 0.0 0.0
12:42 14.7 8.4 66 1039.4 8.3 NE 15.2 0.0 0.0
12:43 14.7 8.2 65 1039.5 10.7 NE 15.2 0.0 0.0
12:44 14.8 8.3 65 1039.3 11.4 N 11.4 0.0 0.0
12:45 14.9 8.4 65 1039.4 7.6 N 11.4 0.0 0.0
12:46 14.9 8.4 65 1039.4 11.4 ENE 11.4 0.0 0.0
12:48 15.0 8.5 65 1039.3 6.9 NE 16.8 0.0 0.0
12:49 15.1 8.3 64 1039.3 9.8 N 16.8 0.0 0.0
12:50 15.1 8.3 64 1039.3 12.1 N 16.8 0.0 0.0
12:51 15.1 8.3 64 1039.3 9.8 NW 16.8 0.0 0.0
12:52 15.1 8.3 64 1039.3 8.3 NW 16.8 0.0 0.0
12:53 15.2 8.4 64 1039.4 7.6 E 16.8 0.0 0.0
12:54 15.2 8.4 64 1039.3 9.8 NW 16.8 0.0 0.0
12:55 15.2 8.4 64 1039.3 9.8 NW 16.8 0.0 0.0
12:56 15.2 8.4 64 1039.3 8.3 N 16.8 0.0 0.0
12:57 15.2 8.2 63 1039.3 12.1 N 12.1 0.0 0.0
12:58 15.2 8.4 64 1039.3 7.6 NE 12.1 0.0 0.0
12:59 15.1 8.6 65 1039.3 6.9 N 12.1 0.0 0.0
13:00 15.2 8.4 64 1039.2 12.1 N 12.1 0.0 0.0
13:01 15.2 8.4 64 1039.2 15.2 NE 15.2 0.0 0.0
13:02 15.1 8.3 64 1039.3 6.0 N 15.2 0.0 0.0
13:03 15.1 8.3 64 1039.3 8.3 N 15.2 0.0 0.0
13:04 15.1 8.3 64 1039.3 8.3 N 15.2 0.0 0.0
13:05 15.2 8.4 64 1039.3 9.8 W 15.2 0.0 0.0
13:06 15.1 8.3 64 1039.3 6.9 N 15.2 0.0 0.0
13:07 15.1 8.3 64 1039.3 10.7 NE 15.2 0.0 0.0
13:08 15.1 8.3 64 1039.3 6.0 E 15.2 0.0 0.0
13:09 15.1 8.3 64 1039.3 9.8 E 15.2 0.0 0.0
13:10 15.2 8.4 64 1039.4 8.3 N 15.2 0.0 0.0
13:11 15.2 8.7 65 1039.3 5.4 N 10.7 0.0 0.0
13:13 15.3 8.5 64 1039.5 8.3 NE 10.7 0.0 0.0
13:14 15.4 8.6 64 1039.4 7.6 WNW 10.7 0.0 0.0
13:15 15.4 8.6 64 1039.4 9.2 N 10.7 0.0 0.0
13:16 15.4 8.6 64 1039.4 7.6 N 10.7 0.0 0.0
13:17 15.4 8.6 64 1039.5 6.9 NE 10.7 0.0 0.0
13:18 15.5 8.5 63 1039.3 9.8 NW 9.8 0.0 0.0
13:19 15.6 8.6 63 1039.2 8.3 NW 9.8 0.0 0.0
13:20 15.6 8.6 63 1039.2 8.3 NW 9.8 0.0 0.0
13:21 15.6 8.4 62 1039.3 5.4 N 9.8 0.0 0.0
13:22 15.6 8.4 62 1039.3 5.4 N 9.8 0.0 0.0
13:23 15.7 8.4 62 1039.2 11.4 N 11.4 0.0 0.0
13:24 15.7 8.4 62 1039.3 10.7 N 11.4 0.0 0.0
13:25 15.6 8.4 62 1039.2 6.9 NW 11.4 0.0 0.0
13:26 15.5 8.0 61 1039.1 6.9 NW 11.4 0.0 0.0
13:27 15.4 8.2 62 1039.2 6.9 NW 11.4 0.0 0.0
13:28 15.4 8.2 62 1039.2 10.7 NE 11.4 0.0 0.0
13:29 15.3 8.3 63 1039.2 10.7 N 13.0 0.0 0.0
13:31 15.3 8.3 63 1039.2 7.6 NE 13.0 0.0 0.0
13:32 15.3 8.3 63 1039.3 7.6 W 13.0 0.0 0.0
13:33 15.4 8.4 63 1039.1 9.2 W 13.0 0.0 0.0
13:34 15.5 8.5 63 1039.1 6.9 NE 13.0 0.0 0.0
13:35 15.5 8.5 63 1039.1 4.5 NE 13.0 0.0 0.0
13:36 15.4 8.4 63 1039.1 5.4 N 13.0 0.0 0.0
13:37 15.4 8.2 62 1039.1 10.7 N 13.0 0.0 0.0
13:38 15.4 8.2 62 1039.2 9.8 N 13.0 0.0 0.0
13:39 15.3 8.1 62 1039.2 9.2 NE 10.7 0.0 0.0
13:40 15.3 8.1 62 1039.2 8.3 NW 10.7 0.0 0.0
13:41 15.4 8.4 63 1039.2 9.8 NE 10.7 0.0 0.0
13:42 15.4 8.4 63 1039.1 11.4 N 11.4 0.0 0.0
13:43 15.4 8.4 63 1039.2 9.2 N 11.4 0.0 0.0
13:44 15.5 8.5 63 1039.1 9.2 N 11.4 0.0 0.0
13:45 15.5 8.3 62 1039.2 9.8 ENE 13.6 0.0 0.0
13:46 15.4 7.9 61 1039.2 9.2 NE 13.6 0.0 0.0
13:48 15.4 8.2 62 1039.0 8.3 N 13.6 0.0 0.0
13:49 15.4 8.2 62 1039.2 9.8 N 13.6 0.0 0.0
13:50 15.3 8.1 62 1039.0 9.2 NE 13.6 0.0 0.0
13:51 15.3 8.3 63 1039.3 9.8 NE 13.6 0.0 0.0
13:52 15.4 8.4 63 1039.3 8.3 W 13.6 0.0 0.0
13:53 15.4 8.4 63 1039.2 9.2 NE 13.6 0.0 0.0
13:54 15.5 8.5 63 1039.1 9.2 NE 11.4 0.0 0.0
13:55 15.5 8.5 63 1039.1 9.2 NE 11.4 0.0 0.0
13:56 15.5 8.3 62 1039.1 9.2 NE 11.4 0.0 0.0
13:57 15.6 8.6 63 1039.1 8.3 NE 9.8 0.0 0.0
13:58 15.6 8.6 63 1039.2 8.3 NE 9.8 0.0 0.0
13:59 15.7 8.9 64 1039.1 6.0 NNE 9.8 0.0 0.0
14:00 15.7 8.7 63 1039.1 15.2 N 15.2 0.0 0.0
14:01 15.7 8.4 62 1039.2 10.7 NE 15.2 0.0 0.0
14:02 15.7 8.4 62 1039.3 8.3 N 15.2 0.0 0.0
14:03 15.6 8.4 62 1039.2 3.8 NE 15.2 0.0 0.0
14:04 15.6 8.4 62 1039.3 5.4 NW 15.2 0.0 0.0
14:06 15.5 8.5 63 1039.2 11.4 SE 15.2 0.0 0.0
14:07 15.4 8.4 63 1039.1 8.3 NW 15.2 0.0 0.0
14:08 15.4 8.4 63 1039.2 8.3 NE 15.2 0.0 0.0
14:09 15.4 8.4 63 1039.1 4.5 N 15.2 0.0 0.0
14:10 15.5 8.5 63 1039.2 10.7 N 11.4 0.0 0.0
14:11 15.4 8.2 62 1039.4 7.6 NE 11.4 0.0 0.0
14:12 15.4 8.2 62 1039.3 9.2 NW 11.4 0.0 0.0
14:13 15.4 8.4 63 1039.3 7.6 W 11.4 0.0 0.0
14:14 15.4 8.4 63 1039.3 5.4 N 11.4 0.0 0.0
14:15 15.5 8.5 63 1039.3 6.9 E 11.4 0.0 0.0
14:16 15.5 8.5 63 1039.2 7.6 NW 11.4 0.0 0.0
14:17 15.5 8.5 63 1039.3 8.3 N 10.7 0.0 0.0
14:18 15.5 8.5 63 1039.3 9.2 SW 10.7 0.0 0.0
14:19 15.5 8.5 63 1039.3 9.2 N 10.7 0.0 0.0
14:20 15.4 8.2 62 1039.3 7.6 N 10.7 0.0 0.0
14:21 15.3 8.3 63 1039.3 8.3 NE 10.7 0.0 0.0
14:22 15.3 8.3 63 1039.3 11.4 NE 11.4 0.0 0.0
14:23 15.2 8.2 63 1039.2 6.0 N 13.0 0.0 0.0
14:25 15.2 8.0 62 1039.0 5.4 W 13.0 0.0 0.0
14:26 15.2 8.0 62 1039.2 4.5 NE 13.0 0.0 0.0
14:27 15.2 8.2 63 1039.1 7.6 W 13.0 0.0 0.0
14:28 15.2 8.2 63 1039.2 6.0 N 13.0 0.0 0.0
14:29 15.2 8.4 64 1039.3 6.9 NE 13.0 0.0 0.0
14:30 15.3 8.5 64 1039.1 5.4 E 13.0 0.0 0.0
14:31 15.3 8.5 64 1039.1 5.4 E 13.0 0.0 0.0
14:32 15.4 8.6 64 1039.0 4.5 N 13.0 0.0 0.0
14:33 15.4 8.4 63 1039.0 6.0 NE 9.8 0.0 0.0
14:34 15.5 8.5 63 1039.0 9.2 NNE 9.8 0.0 0.0
14:35 15.5 8.5 63 1039.1 11.4 NE 11.4 0.0 0.0
14:36 15.5 8.5 63 1038.8 12.1 N 12.1 0.0 0.0
14:37 15.4 8.4 63 1038.9 9.8 NE 12.1 0.0 0.0
14:38 15.4 8.4 63 1038.9 13.6 NW 13.6 0.0 0.0
14:39 15.4 8.4 63 1038.8 10.7 NE 13.6 0.0 0.0
14:40 15.4 8.6 64 1038.9 6.0 NW 13.6 0.0 0.0
14:41 15.4 8.4 63 1038.9 10.7 NE 13.6 0.0 0.0
14:42 15.4 8.4 63 1039.0 8.3 N 13.6 0.0 0.0
14:44 15.4 8.4 63 1038.8 7.6 N 13.6 0.0 0.0
14:45 15.4 8.4 63 1038.7 8.3 SW 13.6 0.0 0.0
14:46 15.4 8.2 62 1038.9 8.3 SSW 13.6 0.0 0.0
14:47 15.4 8.2 62 1039.0 6.9 N 13.6 0.0 0.0
14:48 15.4 8.2 62 1039.0 7.6 E 10.7 0.0 0.0
14:49 15.4 8.2 62 1039.1 5.4 NE 10.7 0.0 0.0
14:50 15.4 8.2 62 1039.1 5.4 NE 10.7 0.0 0.0
14:51 15.3 8.1 62 1039.2 4.5 ENE 10.7 0.0 0.0
14:52 15.4 8.4 63 1039.0 6.9 NW 10.7 0.0 0.0
14:53 15.4 8.4 63 1038.9 6.9 N 8.3 0.0 0.0
14:54 15.4 8.2 62 1038.9 5.4 W 8.3 0.0 0.0
14:55 15.4 8.2 62 1038.9 5.4 NW 8.3 0.0 0.0
14:56 15.5 8.5 63 1039.0 5.4 NW 8.3 0.0 0.0
14:57 15.5 8.5 63 1038.8 6.0 N 7.6 0.0 0.0
14:58 15.6 8.4 62 1038.9 8.3 WNW 8.3 0.0 0.0
14:59 15.6 8.4 62 1039.0 6.0 N 8.3 0.0 0.0
15:00 15.6 8.6 63 1039.0 6.0 SW 8.3 0.0 0.0
15:01 15.6 8.6 63 1039.1 8.3 NW 8.3 0.0 0.0
15:03 15.6 8.4 62 1039.1 8.3 N 13.0 0.0 0.0
15:04 15.6 8.4 62 1039.0 8.3 N 13.0 0.0 0.0
15:05 15.5 8.3 62 1039.0 8.3 NE 13.0 0.0 0.0
15:06 15.5 8.0 61 1038.8 11.4 N 13.0 0.0 0.0
15:07 15.4 7.9 61 1039.0 7.6 S 13.0 0.0 0.0
15:09 15.3 8.1 62 1038.9 5.4 W 13.0 0.0 0.0
15:10 15.3 8.1 62 1039.1 9.8 N 13.0 0.0 0.0
15:11 15.3 8.1 62 1039.0 9.2 W 13.0 0.0 0.0
15:12 15.3 8.1 62 1039.1 9.8 E 13.0 0.0 0.0
15:13 15.3 8.1 62 1039.0 10.7 N 11.4 0.0 0.0
15:14 15.3 8.1 62 1039.1 10.7 N 11.4 0.0 0.0
15:15 15.3 8.1 62 1039.1 10.7 N 11.4 0.0 0.0
15:16 15.3 8.3 63 1039.0 7.6 N 11.4 0.0 0.0
15:17 15.3 8.3 63 1039.1 6.9 NW 11.4 0.0 0.0
15:18 15.3 8.3 63 1039.3 4.5 NE 11.4 0.0 0.0
15:19 15.3 8.3 63 1039.0 6.9 NE 11.4 0.0 0.0
15:20 15.4 8.4 63 1039.0 4.5 NW 11.4 0.0 0.0
15:21 15.5 8.7 64 1038.8 6.9 W 11.4 0.0 0.0
15:22 15.5 8.5 63 1038.8 9.2 E 11.4 0.0 0.0
15:23 15.5 8.5 63 1038.8 3.8 N 11.4 0.0 0.0
15:24 15.5 8.5 63 1038.9 6.0 W 10.7 0.0 0.0
15:25 15.5 8.5 63 1038.8 6.9 N 9.2 0.0 0.0
15:26 15.4 8.4 63 1038.8 7.6 N 9.2 0.0 0.0
15:27 15.4 8.2 62 1038.8 9.8 NW 9.8 0.0 0.0
15:29 15.3 8.3 63 1038.8 6.9 NE 9.8 0.0 0.0
15:30 15.3 8.3 63 1038.8 7.6 E 9.8 0.0 0.0
15:31 15.3 8.3 63 1038.9 4.5 WNW 9.8 0.0 0.0
15:32 15.3 8.3 63 1038.8 6.0 NW 9.8 0.0 0.0
15:33 15.3 8.3 63 1038.9 6.9 NW 9.8 0.0 0.0
15:34 15.3 8.3 63 1038.9 6.9 NW 9.8 0.0 0.0
15:35 15.3 8.1 62 1038.8 6.9 NW 9.8 0.0 0.0
15:36 15.3 8.1 62 1038.8 6.9 NW 9.8 0.0 0.0
15:37 15.3 8.1 62 1038.8 3.8 NW 9.8 0.0 0.0
15:38 15.3 8.1 62 1038.8 6.9 N 9.2 0.0 0.0
15:39 15.2 8.0 62 1038.8 9.8 NW 9.8 0.0 0.0
15:40 15.2 7.7 61 1038.8 9.2 N 9.8 0.0 0.0
15:41 15.2 7.7 61 1038.8 8.3 SW 9.8 0.0 0.0
15:42 15.1 8.1 63 1038.9 4.5 N 9.8 0.0 0.0
15:43 15.1 8.1 63 1038.9 5.4 W 9.8 0.0 0.0
15:44 15.2 8.2 63 1038.7 6.0 N 9.8 0.0 0.0
15:45 15.2 8.2 63 1038.8 6.0 NE 9.8 0.0 0.0
15:47 15.2 8.2 63 1038.8 8.3 NE 9.8 0.0 0.0
15:48 15.2 8.0 62 1038.8 9.8 SW 9.8 0.0 0.0
15:49 15.1 7.9 62 1038.9 6.9 WNW 9.8 0.0 0.0
15:50 15.1 7.9 62 1038.7 4.5 W 9.8 0.0 0.0
15:51 15.1 7.9 62 1038.6 8.3 NW 9.8 0.0 0.0
15:52 15.1 8.1 63 1038.7 6.0 NW 9.8 0.0 0.0
15:53 15.2 8.2 63 1038.7 4.5 NW 9.8 0.0 0.0
15:54 15.2 8.2 63 1038.9 6.9 E 9.8 0.0 0.0
15:55 15.2 8.0 62 1038.7 7.6 NNE 9.8 0.0 0.0
15:56 15.2 8.0 62 1038.8 9.2 NW 9.8 0.0 0.0
15:57 15.2 7.7 61 1038.8 9.2 N 9.8 0.0 0.0
15:58 15.1 7.6 61 1038.7 8.3 NW 9.8 0.0 0.0
15:59 15.1 7.6 61 1038.8 6.0 NW 9.2 0.0 0.0
16:00 15.0 7.8 62 1038.8 4.5 SW 9.2 0.0 0.0
16:01 15.0 7.8 62 1038.7 7.6 SW 9.2 0.0 0.0
16:02 15.0 7.5 61 1038.7 9.8 NE 9.8 0.0 0.0
16:03 14.9 7.7 62 1038.7 6.9 NE 9.8 0.0 0.0
16:04 14.9 7.7 62 1038.7 6.9 NE 9.8 0.0 0.0
16:07 14.7 7.5 62 1038.7 9.8 NE 13.0 0.0 0.0
16:08 14.7 7.3 61 1038.8 9.2 E 13.0 0.0 0.0
16:10 14.6 7.4 62 1038.8 6.9 NE 13.0 0.0 0.0
16:12 14.6 7.4 62 1038.8 10.7 NW 13.0 0.0 0.0
16:13 14.7 7.7 63 1038.7 6.0 NW 13.0 0.0 0.0
16:15 14.7 7.7 63 1038.8 5.4 N 13.0 0.0 0.0
16:16 14.7 7.5 62 1038.8 3.8 NE 13.0 0.0 0.0
16:17 14.8 7.6 62 1038.8 6.0 N 10.7 0.0 0.0
16:18 14.8 7.6 62 1038.9 10.7 NE 10.7 0.0 0.0
16:19 14.8 7.6 62 1038.8 6.9 N 10.7 0.0 0.0
16:20 14.7 7.5 62 1038.8 3.1 NNW 10.7 0.0 0.0
16:21 14.8 7.8 63 1038.8 6.0 SE 10.7 0.0 0.0
16:22 14.9 7.7 62 1038.8 5.4 NW 10.7 0.0 0.0
16:23 14.9 7.9 63 1039.0 6.0 W 10.7 0.0 0.0
16:24 14.9 7.7 62 1038.9 8.3 N 10.7 0.0 0.0
16:25 14.9 7.7 62 1038.9 7.6 N 10.7 0.0 0.0
16:26 14.9 7.5 61 1039.0 6.9 N 10.7 0.0 0.0
16:27 14.8 7.6 62 1038.9 6.9 N 10.7 0.0 0.0
16:28 14.7 7.5 62 1038.9 6.0 NE 10.7 0.0 0.0
16:29 14.7 7.5 62 1039.1 9.2 N 9.2 0.0 0.0
16:30 14.7 7.5 62 1038.8 8.3 NW 9.2 0.0 0.0
16:32 14.4 7.2 62 1038.9 9.2 N 9.2 0.0 0.0
16:33 14.6 7.6 63 1038.9 6.0 N 9.2 0.0 0.0
16:34 14.5 7.5 63 1038.9 8.3 NE 9.2 0.0 0.0
16:35 14.5 7.5 63 1038.9 7.6 NNE 9.2 0.0 0.0
16:36 14.5 7.5 63 1039.0 9.8 N 9.8 0.0 0.0
16:37 14.4 7.5 63 1038.9 9.2 NW 9.8 0.0 0.0
16:38 14.4 7.5 63 1038.9 9.2 NW 9.8 0.0 0.0
16:39 14.4 7.5 63 1038.9 6.9 N 9.8 0.0 0.0
16:40 14.4 7.5 63 1038.9 6.9 N 9.8 0.0 0.0
16:41 14.3 7.4 63 1038.8 7.6 N 9.8 0.0 0.0
16:42 14.3 7.1 62 1038.9 9.8 NW 9.8 0.0 0.0
16:43 14.3 7.4 63 1038.9 8.3 N 9.8 0.0 0.0
16:44 14.3 7.4 63 1038.8 5.4 S 9.8 0.0 0.0
16:45 14.2 7.3 63 1038.9 6.9 NW 9.8 0.0 0.0
16:46 14.2 7.3 63 1038.9 11.4 NW 11.4 0.0 0.0
16:47 14.2 7.3 63 1038.9 5.4 W 11.4 0.0 0.0
16:48 14.2 7.3 63 1038.9 7.6 NW 11.4 0.0 0.0
16:49 14.1 7.4 64 1038.9 3.8 NE 11.4 0.0 0.0
16:51 14.2 7.5 64 1039.1 9.2 NW 11.4 0.0 0.0
16:52 14.2 7.3 63 1038.9 6.0 NW 11.4 0.0 0.0
16:53 14.2 7.3 63 1039.0 9.2 NE 11.4 0.0 0.0
16:54 14.2 7.5 64 1039.0 8.3 NE 11.4 0.0 0.0
16:55 14.1 7.2 63 1038.9 7.6 N 11.4 0.0 0.0
16:56 14.1 7.4 64 1039.0 6.9 N 9.2 0.0 0.0
16:57 14.1 7.4 64 1038.9 9.2 N 9.2 0.0 0.0
16:58 14.1 7.4 64 1038.8 8.3 NW 9.2 0.0 0.0
16:59 14.1 7.4 64 1039.0 4.5 S 9.2 0.0 0.0
17:00 14.1 7.4 64 1039.0 4.5 S 9.2 0.0 0.0
17:01 14.1 7.4 64 1039.0 3.8 E 9.2 0.0 0.0
17:02 14.1 7.4 64 1039.1 9.8 NE 9.8 0.0 0.0
17:03 14.1 7.4 64 1039.1 9.2 E 9.8 0.0 0.0
17:04 14.1 7.4 64 1039.0 9.2 E 9.8 0.0 0.0
17:05 14.0 7.3 64 1039.1 5.4 NE 9.8 0.0 0.0
17:06 14.0 7.3 64 1039.1 6.0 NW 9.8 0.0 0.0
17:07 13.9 7.4 65 1039.2 5.4 N 9.8 0.0 0.0
17:08 13.9 7.4 65 1039.1 6.0 N 9.8 0.0 0.0
17:09 13.9 7.4 65 1039.2 4.5 NW 9.8 0.0 0.0
17:10 13.9 7.4 65 1039.2 4.5 ENE 9.8 0.0 0.0
17:11 13.8 7.3 65 1039.1 6.0 NE 9.8 0.0 0.0
17:12 13.8 7.3 65 1039.2 6.9 NW 9.2 0.0 0.0
17:13 13.7 7.2 65 1039.0 6.9 NE 9.2 0.0 0.0
17:14 13.7 7.2 65 1039.0 7.6 E 7.6 0.0 0.0
17:15 13.7 7.2 65 1039.1 12.1 N 12.1 0.0 0.0
17:17 13.6 7.1 65 1039.1 7.6 NW 12.1 0.0 0.0
17:18 13.5 7.1 65 1039.0 4.5 NE 12.1 0.0 0.0
17:19 13.5 7.1 65 1039.1 6.0 E 12.1 0.0 0.0
17:20 13.5 7.1 65 1039.1 3.8 N 12.1 0.0 0.0
17:21 13.5 7.3 66 1039.1 4.5 NE 12.1 0.0 0.0
17:22 13.5 7.3 66 1039.1 7.6 N 12.1 0.0 0.0
17:23 13.5 7.3 66 1039.2 4.5 NE 12.1 0.0 0.0
17:24 13.4 7.2 66 1039.1 4.5 NE 12.1 0.0 0.0
17:25 13.4 7.2 66 1039.0 4.5 NE 12.1 0.0 0.0
17:26 13.4 7.2 66 1039.1 5.4 NE 7.6 0.0 0.0
17:27 13.4 7.2 66 1039.1 8.3 N 9.8 0.0 0.0
17:28 13.3 7.1 66 1039.1 9.2 NE 9.8 0.0 0.0
17:29 13.3 7.1 66 1039.0 8.3 NE 9.8 0.0 0.0
17:30 13.3 7.1 66 1039.1 9.2 NE 9.8 0.0 0.0
17:31 13.2 7.0 66 1039.1 6.9 N 9.8 0.0 0.0
17:32 13.2 7.0 66 1039.0 6.9 NE 9.8 0.0 0.0
17:33 13.2 7.0 66 1039.0 5.4 N 9.8 0.0 0.0
17:35 13.1 6.9 66 1039.0 3.8 W 9.8 0.0 0.0
17:36 13.1 6.9 66 1039.2 5.4 E 9.8 0.0 0.0
17:37 13.0 6.8 66 1039.3 4.5 N 9.2 0.0 0.0
17:38 13.0 6.8 66 1039.4 6.9 NE 9.2 0.0 0.0
17:39 13.0 6.8 66 1039.3 3.8 W 9.2 0.0 0.0
17:40 13.0 6.8 66 1039.3 3.8 W 9.2 0.0 0.0
17:41 13.0 6.8 66 1039.3 3.8 NE 8.3 0.0 0.0
17:42 12.9 6.7 66 1039.3 4.5 NNE 8.3 0.0 0.0
17:43 12.9 6.9 67 1039.3 3.1 E 8.3 0.0 0.0
17:44 12.9 6.9 67 1039.3 3.1 W 8.3 0.0 0.0
17:45 12.9 6.9 67 1039.3 3.8 NW 8.3 0.0 0.0
17:46 12.9 6.9 67 1039.2 4.5 NE 8.3 0.0 0.0
17:47 12.8 6.8 67 1039.3 3.1 NE 8.3 0.0 0.0
17:48 12.8 6.8 67 1039.4 5.4 WNW 6.9 0.0 0.0
17:49 12.8 6.8 67 1039.3 7.6 NE 7.6 0.0 0.0
17:50 12.7 6.7 67 1039.3 3.1 N 7.6 0.0 0.0
17:51 12.7 6.7 67 1039.2 5.4 N 7.6 0.0 0.0
17:52 12.7 6.7 67 1039.2 3.8 N 7.6 0.0 0.0
17:54 12.6 6.6 67 1039.1 3.1 N 7.6 0.0 0.0
17:55 12.6 6.6 67 1039.3 3.8 NE 7.6 0.0 0.0
17:56 12.6 6.6 67 1039.2 3.8 NE 7.6 0.0 0.0
17:57 12.5 6.5 67 1039.3 3.1 N 7.6 0.0 0.0
17:58 12.5 6.5 67 1039.2 3.1 NE 7.6 0.0 0.0
17:59 12.4 6.7 68 1039.3 3.1 NW 7.6 0.0 0.0
18:00 12.4 6.7 68 1039.3 3.1 NW 5.4 0.0 0.0
18:01 12.4 6.7 68 1039.1 3.1 N 5.4 0.0 0.0
18:02 12.3 6.6 68 1039.2 3.1 N 3.8 0.0 0.0
18:03 12.3 6.6 68 1039.2 3.1 N 3.8 0.0 0.0
18:04 12.3 6.6 68 1039.3 3.1 N 3.8 0.0 0.0
18:05 12.3 6.6 68 1039.2 3.1 N 3.8 0.0 0.0
18:06 12.3 6.6 68 1039.3 3.1 N 3.8 0.0 0.0
18:07 12.3 6.6 68 1039.1 3.1 N 3.8 0.0 0.0
18:08 12.1 6.4 68 1039.1 3.1 NE 3.8 0.0 0.0
18:09 12.0 6.3 68 1039.2 0.7 N 3.8 0.0 0.0
18:10 12.0 6.3 68 1039.1 1.6 N 3.8 0.0 0.0
18:11 11.9 6.2 68 1039.1 0.0 NE 3.8 0.0 0.0
18:13 11.8 6.3 69 1039.1 0.0 NW 3.8 0.0 0.0
18:14 11.7 6.0 68 1039.0 0.7 NW 3.8 0.0 0.0
18:15 11.7 6.2 69 1039.1 2.2 NE 3.8 0.0 0.0
18:16 11.6 6.1 69 1039.2 2.2 N 3.8 0.0 0.0
18:17 11.6 6.1 69 1039.1 1.6 N 3.8 0.0 0.0
18:18 11.6 6.1 69 1039.1 1.6 N 3.8 0.0 0.0
18:19 11.5 6.0 69 1039.3 2.2 NE 3.8 0.0 0.0
18:20 11.5 6.0 69 1039.2 3.1 N 3.8 0.0 0.0
18:21 11.4 5.9 69 1039.3 3.1 NE 3.8 0.0 0.0
18:22 11.4 5.9 69 1039.2 1.6 NE 3.8 0.0 0.0
18:23 11.3 5.8 69 1039.3 3.1 NE 3.1 0.0 0.0
18:24 11.2 5.7 69 1039.3 2.2 NW 3.1 0.0 0.0
18:25 11.2 5.7 69 1039.3 1.6 N 3.1 0.0 0.0
18:26 11.2 5.9 70 1039.3 0.0 NE 3.1 0.0 0.0
18:27 11.1 5.8 70 1039.4 0.0 N 3.1 0.0 0.0
18:28 11.0 5.7 70 1039.3 3.1 NE 3.1 0.0 0.0
18:29 11.0 5.7 70 1039.2 3.1 NE 3.1 0.0 0.0
18:30 10.9 5.6 70 1039.3 2.2 NW 3.1 0.0 0.0
18:32 10.8 5.6 70 1039.3 0.7 N 3.1 0.0 0.0
18:33 10.8 5.6 70 1039.3 1.6 NNE 3.1 0.0 0.0
18:34 10.7 5.5 70 1039.2 2.2 NE 3.1 0.0 0.0
18:35 10.7 5.7 71 1039.3 3.1 NE 3.1 0.0 0.0
18:36 10.6 5.6 71 1039.2 2.2 N 3.1 0.0 0.0
18:37 10.6 5.6 71 1039.2 2.2 N 3.1 0.0 0.0
18:38 10.6 5.6 71 1039.2 3.8 N 3.8 0.0 0.0
18:39 10.5 5.5 71 1039.2 4.5 NE 4.5 0.0 0.0
18:40 10.5 5.5 71 1039.2 3.8 ENE 4.5 0.0 0.0
18:41 10.5 5.5 71 1039.2 3.8 NE 4.5 0.0 0.0
18:42 10.4 5.6 72 1039.2 4.5 N 4.5 0.0 0.0
18:43 10.4 5.6 72 1039.3 3.8 NE 4.5 0.0 0.0
18:44 10.3 5.5 72 1039.3 3.1 NNE 4.5 0.0 0.0
18:45 10.3 5.5 72 1039.3 3.1 NE 4.5 0.0 0.0
18:46 10.3 5.5 72 1039.3 3.1 NE 4.5 0.0 0.0
18:47 10.2 5.4 72 1039.3 3.1 N 4.5 0.0 0.0
18:48 10.2 5.4 72 1039.3 2.2 NE 4.5 0.0 0.0
18:49 10.1 5.3 72 1039.3 3.1 ENE 4.5 0.0 0.0
18:51 10.1 5.3 72 1039.4 2.2 NNE 4.5 0.0 0.0
18:52 10.0 5.4 73 1039.5 0.7 NE 3.8 0.0 0.0
18:53 10.0 5.4 73 1039.5 1.6 NE 3.1 0.0 0.0
18:54 10.0 5.4 73 1039.6 0.7 N 3.1 0.0 0.0
18:55 10.0 5.4 73 1039.6 0.7 N 3.1 0.0 0.0
18:56 10.0 5.4 73 1039.5 1.6 NNE 3.1 0.0 0.0
18:57 10.0 5.4 73 1039.6 0.7 N 3.1 0.0 0.0
18:58 9.9 5.3 73 1039.6 0.0 N 3.1 0.0 0.0
18:59 9.9 5.3 73 1039.4 3.1 N 3.1 0.0 0.0
19:00 9.9 5.3 73 1039.6 2.2 NE 3.1 0.0 0.0
19:01 9.9 5.3 73 1039.5 3.1 N 3.1 0.0 0.0
19:02 9.8 5.2 73 1039.6 3.8 NE 3.8 0.0 0.0
19:03 9.8 5.4 74 1039.6 3.8 NE 3.8 0.0 0.0
19:04 9.8 5.4 74 1039.7 3.8 NE 3.8 0.0 0.0
19:05 9.7 5.3 74 1039.6 2.2 N 3.8 0.0 0.0
19:07 9.7 5.3 74 1039.6 0.0 N 3.8 0.0 0.0
19:08 9.7 5.3 74 1039.6 2.2 N 3.8 0.0 0.0
19:09 9.6 5.2 74 1039.6 2.2 N 3.8 0.0 0.0
19:10 9.6 5.2 74 1039.7 2.2 NW 3.8 0.0 0.0
19:11 9.6 5.2 74 1039.5 3.1 E 3.8 0.0 0.0
19:12 9.6 5.4 75 1039.6 4.5 NE 4.5 0.0 0.0
19:13 9.6 5.4 75 1039.7 3.8 NE 4.5 0.0 0.0
19:14 9.5 5.3 75 1039.5 3.1 N 4.5 0.0 0.0
19:15 9.5 5.3 75 1039.7 3.1 NE 4.5 0.0 0.0
19:17 9.5 5.3 75 1039.6 3.8 NE 4.5 0.0 0.0
19:18 9.4 5.2 75 1039.7 3.8 N 4.5 0.0 0.0
19:19 9.4 5.2 75 1039.7 4.5 N 4.5 0.0 0.0
19:20 9.4 5.2 75 1039.7 3.8 N 4.5 0.0 0.0
19:21 9.4 5.2 75 1039.6 4.5 N 4.5 0.0 0.0
19:22 9.4 5.2 75 1039.6 4.5 N 4.5 0.0 0.0
19:23 9.4 5.2 75 1039.6 3.1 N 4.5 0.0 0.0
19:24 9.4 5.2 75 1039.6 2.2 E 4.5 0.0 0.0
19:25 9.4 5.4 76 1039.8 3.1 NE 4.5 0.0 0.0
19:26 9.4 5.4 76 1039.7 3.1 N 4.5 0.0 0.0
19:27 9.3 5.3 76 1039.6 3.8 N 4.5 0.0 0.0
19:28 9.4 5.4 76 1039.6 3.8 NE 4.5 0.0 0.0
19:29 9.3 5.3 76 1039.6 3.1 N 4.5 0.0 0.0
19:30 9.3 5.3 76 1039.4 3.8 NE 4.5 0.0 0.0
19:31 9.3 5.3 76 1039.4 3.8 NE 4.5 0.0 0.0
19:32 9.3 5.3 76 1039.4 3.8 WSW 3.8 0.0 0.0
19:33 9.3 5.3 76 1039.4 4.5 NE 4.5 0.0 0.0
19:34 9.3 5.3 76 1039.3 4.5 N 4.5 0.0 0.0
19:35 9.3 5.3 76 1039.3 3.8 N 4.5 0.0 0.0
19:36 9.3 5.3 76 1039.4 3.1 NW 4.5 0.0 0.0
19:37 9.2 5.4 77 1039.5 2.2 NE 4.5 0.0 0.0
19:38 9.2 5.4 77 1039.3 3.8 N 4.5 0.0 0.0
19:39 9.2 5.4 77 1039.4 3.8 N 4.5 0.0 0.0
19:40 9.2 5.4 77 1039.3 3.8 NE 4.5 0.0 0.0
19:41 9.2 5.4 77 1039.3 3.1 NE 4.5 0.0 0.0
19:42 9.2 5.4 77 1039.5 0.7 NE 4.5 0.0 0.0
19:43 9.1 5.3 77 1039.5 1.6 NE 4.5 0.0 0.0
19:45 9.1 5.3 77 1039.6 3.1 E 4.5 0.0 0.0
19:46 9.1 5.3 77 1039.6 3.1 N 4.5 0.0 0.0
19:47 9.1 5.3 77 1039.7 3.1 N 4.5 0.0 0.0
19:48 9.1 5.3 77 1039.6 3.1 E 5.4 0.0 0.0
19:49 9.1 5.5 78 1039.4 3.8 NE 5.4 0.0 0.0
19:50 9.1 5.5 78 1039.4 3.8 NE 5.4 0.0 0.0
19:51 9.1 5.5 78 1039.6 3.1 N 5.4 0.0 0.0
19:52 9.1 5.5 78 1039.4 3.8 NE 5.4 0.0 0.0
19:53 9.1 5.5 78 1039.5 3.1 NE 5.4 0.0 0.0
19:54 9.1 5.5 78 1039.5 5.4 NE 5.4 0.0 0.0
19:55 9.1 5.5 78 1039.5 3.8 NE 5.4 0.0 0.0
19:56 9.2 5.6 78 1039.7 3.1 N 5.4 0.0 0.0
19:57 9.2 5.6 78 1039.7 4.5 N 5.4 0.0 0.0
19:58 9.2 5.6 78 1039.6 4.5 N 5.4 0.0 0.0
19:59 9.2 5.6 78 1039.7 3.1 NE 5.4 0.0 0.0
20:00 9.2 5.8 79 1039.7 2.2 NE 5.4 0.0 0.0
20:01 9.2 5.8 79 1039.7 2.2 N 5.4 0.0 0.0
20:02 9.2 5.8 79 1039.7 3.8 NE 5.4 0.0 0.0
20:03 9.2 5.8 79 1039.8 4.5 NE 5.4 0.0 0.0
20:04 9.2 5.8 79 1039.8 3.1 NE 4.5 0.0 0.0
20:05 9.2 5.8 79 1039.8 3.1 NE 4.5 0.0 0.0
20:06 9.2 5.8 79 1039.8 3.1 NE 4.5 0.0 0.0
20:07 9.2 5.8 79 1039.9 3.1 NE 4.5 0.0 0.0
20:08 9.2 5.8 79 1039.8 3.1 NE 4.5 0.0 0.0
20:09 9.3 5.8 79 1039.8 5.4 NW 5.4 0.0 0.0
20:10 9.3 5.8 79 1039.9 3.1 S 5.4 0.0 0.0
20:12 9.3 5.8 79 1039.8 4.5 NW 5.4 0.0 0.0
20:13 9.3 5.8 79 1040.0 2.2 NW 5.4 0.0 0.0
20:14 9.3 5.8 79 1039.8 4.5 NW 5.4 0.0 0.0
20:15 9.3 5.8 79 1039.8 5.4 W 5.4 0.0 0.0
20:16 9.3 5.8 79 1039.7 3.8 WNW 6.9 0.0 0.0
20:17 9.3 5.8 79 1039.7 3.8 WNW 6.9 0.0 0.0
20:18 9.3 5.8 79 1039.7 5.4 N 6.9 0.0 0.0
20:19 9.3 5.8 79 1039.8 2.2 NE 6.9 0.0 0.0
20:20 9.3 5.8 79 1039.9 1.6 NW 6.9 0.0 0.0
20:21 9.4 5.9 79 1039.8 4.5 NW 6.9 0.0 0.0
20:22 9.3 5.8 79 1039.9 0.7 N 6.9 0.0 0.0
20:23 9.3 6.0 80 1039.8 3.8 NE 6.9 0.0 0.0
20:24 9.3 6.0 80 1039.9 3.8 SW 6.9 0.0 0.0
20:25 9.4 6.1 80 1040.0 0.7 NW 6.9 0.0 0.0
20:26 9.3 5.8 79 1039.8 1.6 NW 6.9 0.0 0.0
20:27 9.3 6.0 80 1039.6 4.5 NE 5.4 0.0 0.0
20:28 9.3 6.0 80 1039.7 2.2 NW 5.4 0.0 0.0
20:29 9.3 6.0 80 1039.7 3.8 N 4.5 0.0 0.0
20:30 9.3 6.0 80 1039.8 1.6 NE 4.5 0.0 0.0
20:31 9.3 6.0 80 1039.6 0.7 W 4.5 0.0 0.0
20:32 9.3 6.0 80 1039.9 3.1 WSW 4.5 0.0 0.0
20:33 9.3 6.0 80 1039.7 3.1 NNE 4.5 0.0 0.0
20:34 9.3 6.0 80 1039.8 3.8 NE 4.5 0.0 0.0
20:35 9.3 6.0 80 1039.8 3.1 W 4.5 0.0 0.0
20:36 9.3 6.0 80 1039.8 3.1 NW 4.5 0.0 0.0
20:37 9.3 6.0 80 1039.9 3.1 N 4.5 0.0 0.0
20:39 9.2 5.9 80 1039.7 2.2 NE 4.5 0.0 0.0
20:40 9.2 5.9 80 1039.6 2.2 N 3.8 0.0 0.0
20:41 9.2 5.9 80 1039.8 0.7 W 3.8 0.0 0.0
20:42 9.2 5.9 80 1039.8 3.1 SW 3.8 0.0 0.0
20:43 9.2 5.9 80 1039.8 4.5 N 4.5 0.0 0.0
20:44 9.2 5.9 80 1039.8 3.1 NW 4.5 0.0 0.0
20:45 9.2 5.9 80 1039.8 3.1 N 4.5 0.0 0.0
20:46 9.2 5.9 80 1039.7 1.6 SE 4.5 0.0 0.0
20:47 9.2 5.9 80 1039.8 1.6 N 4.5 0.0 0.0
20:48 9.2 5.9 80 1039.8 2.2 SW 4.5 0.0 0.0
20:49 9.2 5.9 80 1039.6 4.5 N 4.5 0.0 0.0
20:50 9.2 5.9 80 1039.6 5.4 W 5.4 0.0 0.0
20:51 9.2 6.1 81 1039.7 6.0 N 6.0 0.0 0.0
20:52 9.2 6.1 81 1039.6 5.4 NE 6.0 0.0 0.0
20:53 9.2 6.1 81 1039.6 2.2 NE 6.0 0.0 0.0
20:54 9.2 6.1 81 1039.6 3.1 NW 6.0 0.0 0.0
20:55 9.2 6.1 81 1039.5 3.1 N 6.0 0.0 0.0
20:56 9.2 6.1 81 1039.6 2.2 SW 6.0 0.0 0.0
20:57 9.2 6.1 81 1039.5 3.8 N 6.0 0.0 0.0
20:58 9.2 6.1 81 1039.7 4.5 N 6.0 0.0 0.0
20:59 9.2 6.1 81 1039.6 3.8 NW 6.0 0.0 0.0
21:00 9.2 6.1 81 1039.6 2.2 N 6.0 0.0 0.0
21:01 9.2 6.1 81 1039.6 2.2 N 5.4 0.0 0.0
21:02 9.2 6.1 81 1039.6 3.1 N 4.5 0.0 0.0
21:03 9.2 6.1 81 1039.6 3.8 NW 4.5 0.0 0.0
21:04 9.2 6.1 81 1039.5 3.8 N 4.5 0.0 0.0
21:05 9.2 6.1 81 1039.7 3.8 N 4.5 0.0 0.0
21:06 9.2 6.1 81 1039.6 3.8 N 4.5 0.0 0.0
21:07 9.2 6.1 81 1039.5 3.8 N 4.5 0.0 0.0
21:08 9.2 6.1 81 1039.7 3.8 N 4.5 0.0 0.0
21:09 9.2 6.1 81 1039.8 3.8 N 3.8 0.0 0.0
21:10 9.2 6.1 81 1039.7 3.8 N 3.8 0.0 0.0
21:11 9.2 6.1 81 1039.7 3.8 N 3.8 0.0 0.0
21:12 9.2 6.1 81 1039.7 3.8 N 3.8 0.0 0.0
21:13 9.2 6.1 81 1039.6 2.2 W 3.8 0.0 0.0
21:14 9.2 6.1 81 1039.7 3.1 NW 3.8 0.0 0.0
21:15 9.2 6.1 81 1039.6 3.8 NW 3.8 0.0 0.0
21:16 9.2 6.1 81 1039.8 6.0 N 6.0 0.0 0.0
21:17 9.2 6.1 81 1039.8 5.4 N 6.0 0.0 0.0
21:18 9.2 6.1 81 1039.7 2.2 NE 6.0 0.0 0.0
21:20 9.2 6.3 82 1039.7 4.5 E 6.0 0.0 0.0
21:21 9.2 6.3 82 1039.7 4.5 NW 6.0 0.0 0.0
21:22 9.2 6.3 82 1039.7 3.8 NW 6.0 0.0 0.0
21:23 9.2 6.3 82 1039.7 3.8 NE 6.0 0.0 0.0
21:24 9.2 6.3 82 1039.7 3.1 WNW 6.0 0.0 0.0
21:25 9.2 6.3 82 1039.8 3.8 NE 6.0 0.0 0.0
21:26 9.2 6.3 82 1039.9 3.8 NW 6.0 0.0 0.0
21:27 9.2 6.3 82 1039.6 6.0 NW 6.0 0.0 0.0
21:28 9.2 6.3 82 1039.8 3.1 NW 6.0 0.0 0.0
21:29 9.2 6.3 82 1039.7 3.1 N 6.0 0.0 0.0
21:30 9.2 6.3 82 1039.6 3.1 NW 6.0 0.0 0.0
21:31 9.2 6.3 82 1039.7 4.5 NW 6.0 0.0 0.0
21:32 9.2 6.3 82 1039.7 3.8 N 6.0 0.0 0.0
21:33 9.2 6.3 82 1039.6 3.8 N 6.0 0.0 0.0
21:34 9.2 6.3 82 1039.7 5.4 NW 6.0 0.0 0.0
21:35 9.2 6.3 82 1039.7 3.1 NW 6.0 0.0 0.0
21:36 9.2 6.3 82 1039.6 3.1 N 6.0 0.0 0.0
21:37 9.2 6.3 82 1039.7 4.5 NW 5.4 0.0 0.0
21:38 9.3 6.4 82 1039.7 6.9 N 6.9 0.0 0.0
21:39 9.2 6.5 83 1039.6 3.1 N 6.9 0.0 0.0
21:40 9.2 6.5 83 1039.7 4.5 NW 7.6 0.0 0.0
21:41 9.3 6.6 83 1039.8 1.6 NE 7.6 0.0 0.0
21:42 9.2 6.5 83 1039.7 4.5 N 7.6 0.0 0.0
21:43 9.3 6.6 83 1039.8 4.5 N 7.6 0.0 0.0
21:44 9.3 6.6 83 1039.9 3.8 NW 7.6 0.0 0.0
21:45 9.3 6.6 83 1039.9 2.2 NW 7.6 0.0 0.0
21:47 9.3 6.6 83 1039.9 3.8 W 7.6 0.0 0.0
21:48 9.3 6.6 83 1040.1 3.8 N 7.6 0.0 0.0
21:49 9.3 6.6 83 1040.0 4.5 N 7.6 0.0 0.0
21:50 9.3 6.6 83 1040.0 4.5 N 7.6 0.0 0.0
21:51 9.3 6.6 83 1040.0 3.8 N 7.6 0.0 0.0
21:52 9.3 6.6 83 1040.1 3.1 N 7.6 0.0 0.0
21:53 9.3 6.6 83 1040.1 2.2 NE 7.6 0.0 0.0
21:54 9.3 6.6 83 1040.0 6.9 N 7.6 0.0 0.0
21:55 9.3 6.6 83 1040.0 4.5 NE 7.6 0.0 0.0
21:56 9.3 6.6 83 1039.9 4.5 NE 7.6 0.0 0.0
21:57 9.3 6.6 83 1040.0 4.5 NW 6.9 0.0 0.0
21:58 9.3 6.6 83 1040.0 2.2 N 6.9 0.0 0.0
21:59 9.3 6.6 83 1039.8 2.2 NW 6.9 0.0 0.0
22:00 9.3 6.6 83 1039.9 3.8 NW 6.9 0.0 0.0
22:01 9.3 6.6 83 1039.9 3.8 NW 6.9 0.0 0.0
22:02 9.3 6.6 83 1039.8 3.1 N 6.9 0.0 0.0
22:03 9.3 6.6 83 1039.8 3.8 WNW 6.9 0.0 0.0
22:04 9.3 6.6 83 1039.8 6.0 WNW 6.0 0.0 0.0
22:05 9.3 6.6 83 1039.7 3.1 SW 6.0 0.0 0.0
22:06 9.3 6.6 83 1039.8 3.8 NE 6.0 0.0 0.0
22:07 9.3 6.6 83 1039.7 3.8 N 6.0 0.0 0.0
22:08 9.3 6.6 83 1039.7 6.0 SE 6.9 0.0 0.0
22:09 9.3 6.6 83 1039.7 2.2 N 6.9 0.0 0.0
22:10 9.3 6.6 83 1039.7 0.7 NW 6.9 0.0 0.0
22:11 9.3 6.7 84 1039.7 5.4 N 6.9 0.0 0.0
22:12 9.3 6.7 84 1039.8 3.1 N 6.9 0.0 0.0
22:13 9.3 6.6 83 1039.7 0.7 W 6.9 0.0 0.0
22:14 9.3 6.7 84 1039.8 3.8 NW 6.9 0.0 0.0
22:16 9.2 6.6 84 1039.6 4.5 N 6.9 0.0 0.0
22:17 9.2 6.6 84 1039.6 2.2 E 6.9 0.0 0.0
22:18 9.2 6.6 84 1039.6 2.2 E 6.9 0.0 0.0
22:19 9.2 6.6 84 1039.6 1.6 NE 6.9 0.0 0.0
22:20 9.2 6.6 84 1039.7 3.1 NW 6.9 0.0 0.0
22:21 9.2 6.6 84 1039.7 4.5 NNE 6.9 0.0 0.0
22:22 9.2 6.6 84 1039.5 2.2 NNW 6.9 0.0 0.0
22:23 9.2 6.6 84 1039.7 2.2 N 6.9 0.0 0.0
22:24 9.2 6.6 84 1039.8 3.8 NW 6.9 0.0 0.0
22:25 9.2 6.6 84 1039.6 5.4 ENE 6.9 0.0 0.0
22:26 9.2 6.6 84 1039.7 2.2 NW 5.4 0.0 0.0
22:27 9.2 6.6 84 1039.6 0.7 NW 5.4 0.0 0.0
22:28 9.2 6.6 84 1039.6 1.6 N 5.4 0.0 0.0
22:29 9.2 6.6 84 1039.6 0.0 NW 5.4 0.0 0.0
22:30 9.2 6.6 84 1039.6 0.0 NW 5.4 0.0 0.0
22:31 9.1 6.5 84 1039.5 3.1 N 5.4 0.0 0.0
22:32 9.1 6.5 84 1039.5 1.6 N 5.4 0.0 0.0
22:33 9.1 6.5 84 1039.5 0.0 NE 5.4 0.0 0.0
22:34 9.1 6.5 84 1039.4 2.2 N 5.4 0.0 0.0
22:35 9.1 6.5 84 1039.5 2.2 N 3.1 0.0 0.0
22:36 9.1 6.5 84 1039.4 0.0 NW 3.1 0.0 0.0
22:37 9.1 6.5 84 1039.5 1.6 NW 3.1 0.0 0.0
22:38 9.1 6.5 84 1039.4 2.2 NE 3.1 0.0 0.0
22:39 9.1 6.5 84 1039.6 2.2 NW 3.1 0.0 0.0
22:40 9.0 6.4 84 1039.5 2.2 NW 3.1 0.0 0.0
22:41 9.0 6.4 84 1039.7 2.2 N 2.2 0.0 0.0
22:42 9.0 6.4 84 1039.6 3.8 N 3.8 0.0 0.0
22:44 9.0 6.4 84 1039.4 3.8 W 3.8 0.0 0.0
22:45 9.0 6.4 84 1039.5 1.6 NW 3.8 0.0 0.0
22:46 9.0 6.4 84 1039.6 1.6 NW 3.8 0.0 0.0
22:47 8.9 6.3 84 1039.3 1.6 NW 3.8 0.0 0.0
22:48 8.9 6.3 84 1039.3 1.6 NW 3.8 0.0 0.0
22:49 8.9 6.3 84 1039.4 3.1 N 3.8 0.0 0.0
22:50 8.9 6.3 84 1039.4 0.7 NE 3.8 0.0 0.0
22:51 8.9 6.3 84 1039.4 1.6 E 3.8 0.0 0.0
22:52 8.9 6.3 84 1039.4 0.0 NE 3.8 0.0 0.0
22:53 8.9 6.3 84 1039.3 0.0 N 3.8 0.0 0.0
22:54 8.9 6.3 84 1039.5 4.5 N 4.5 0.0 0.0
22:55 8.9 6.3 84 1039.4 1.6 NE 4.5 0.0 0.0
22:56 8.9 6.3 84 1039.3 3.1 N 4.5 0.0 0.0
22:57 8.8 6.2 84 1039.5 0.7 N 4.5 0.0 0.0
22:59 8.8 6.2 84 1039.5 0.7 N 4.5 0.0 0.0
23:00 8.8 6.2 84 1039.4 1.6 N 4.5 0.0 0.0
23:01 8.8 6.2 84 1039.4 1.6 N 4.5 0.0 0.0
23:02 8.8 6.2 84 1039.4 0.0 N 4.5 0.0 0.0
23:03 8.8 6.2 84 1039.4 2.2 NW 4.5 0.0 0.0
23:04 8.8 6.2 84 1039.3 2.2 NW 4.5 0.0 0.0
23:05 8.8 6.2 84 1039.5 0.0 NW 3.1 0.0 0.0
23:06 8.8 6.2 84 1039.3 2.2 NE 3.1 0.0 0.0
23:07 8.8 6.2 84 1039.6 3.8 N 3.8 0.0 0.0
23:08 8.8 6.2 84 1039.3 3.8 N 3.8 0.0 0.0
23:09 8.8 6.2 84 1039.5 1.6 NE 3.8 0.0 0.0
23:10 8.8 6.4 85 1039.4 3.8 NE 3.8 0.0 0.0
23:11 8.7 6.3 85 1039.5 1.6 NNE 3.8 0.0 0.0
23:12 8.7 6.3 85 1039.5 2.2 N 4.5 0.0 0.0
23:13 8.7 6.3 85 1039.5 2.2 N 4.5 0.0 0.0
23:14 8.7 6.1 84 1039.6 3.8 NW 4.5 0.0 0.0
23:15 8.7 6.3 85 1039.4 3.8 ENE 4.5 0.0 0.0
23:16 8.7 6.3 85 1039.4 6.0 N 6.0 0.0 0.0
23:17 8.7 6.3 85 1039.5 6.0 N 6.0 0.0 0.0
23:18 8.7 6.3 85 1039.5 4.5 NE 6.0 0.0 0.0
23:19 8.7 6.3 85 1039.6 6.0 NE 6.0 0.0 0.0
23:20 8.7 6.3 85 1039.6 5.4 NW 6.0 0.0 0.0
23:21 8.9 6.5 85 1039.5 4.5 N 6.0 0.0 0.0
23:22 8.7 6.3 85 1039.6 4.5 NE 6.0 0.0 0.0
23:23 8.7 6.3 85 1039.5 2.2 N 6.0 0.0 0.0
23:24 8.8 6.4 85 1039.6 5.4 NW 6.0 0.0 0.0
23:25 8.7 6.3 85 1039.6 3.1 ENE 6.0 0.0 0.0
23:26 8.8 6.4 85 1039.6 2.2 N 6.0 0.0 0.0
23:27 8.8 6.4 85 1039.7 6.9 N 6.9 0.0 0.0
23:28 8.8 6.4 85 1039.6 3.1 NE 6.9 0.0 0.0
23:29 8.8 6.4 85 1039.7 1.6 N 6.9 0.0 0.0
23:30 8.9 6.5 85 1039.7 6.0 N 6.9 0.0 0.0
23:31 8.9 6.5 85 1039.6 3.1 N 6.9 0.0 0.0
23:32 8.8 6.4 85 1039.7 3.1 N 6.9 0.0 0.0
23:33 8.8 6.4 85 1039.7 3.1 N 6.9 0.0 0.0
23:34 8.8 6.4 85 1039.6 6.9 N 6.9 0.0 0.0
23:35 8.8 6.4 85 1039.8 3.1 NW 6.9 0.0 0.0
23:36 8.8 6.4 85 1039.8 3.1 NW 6.9 0.0 0.0
23:38 8.9 6.5 85 1039.6 3.8 SE 6.9 0.0 0.0
23:39 8.8 6.4 85 1039.7 2.2 NW 6.9 0.0 0.0
23:40 8.8 6.4 85 1039.7 1.6 NW 6.9 0.0 0.0
23:41 8.8 6.4 85 1039.7 1.6 NW 6.9 0.0 0.0
23:42 8.7 6.3 85 1039.6 0.7 N 6.9 0.0 0.0
23:43 8.7 6.3 85 1039.6 2.2 N 6.9 0.0 0.0
23:44 8.7 6.3 85 1039.3 3.1 NW 6.9 0.0 0.0
23:45 8.7 6.3 85 1039.5 1.6 N 3.8 0.0 0.0
23:46 8.7 6.3 85 1039.4 3.8 NE 3.8 0.0 0.0
23:47 8.7 6.3 85 1039.4 4.5 NW 4.5 0.0 0.0
23:48 8.7 6.3 85 1039.5 4.5 NE 4.5 0.0 0.0
23:49 8.7 6.3 85 1039.3 4.5 N 4.5 0.0 0.0
23:50 8.7 6.3 85 1039.6 3.8 E 4.5 0.0 0.0
23:51 8.7 6.3 85 1039.4 3.8 N 4.5 0.0 0.0
23:52 8.7 6.3 85 1039.4 3.8 N 4.5 0.0 0.0
23:53 8.7 6.3 85 1039.5 1.6 NNE 4.5 0.0 0.0
23:54 8.7 6.3 85 1039.4 1.6 N 4.5 0.0 0.0
23:55 8.7 6.3 85 1039.4 3.1 NW 4.5 0.0 0.0
23:56 8.6 6.2 85 1039.4 2.2 NE 4.5 0.0 0.0
23:57 8.6 6.2 85 1039.4 5.4 NW 5.4 0.0 0.0
23:58 8.6 6.2 85 1039.3 3.8 N 5.4 0.0 0.0
23:59 8.6 6.2 85 1039.2 0.7 N 5.4 0.0 0.0

UK - WEATHER STATION TOPSITES - UK World Weather Websites

This is a private weather station, never base important decisions or events on data from this weather station. Although every effort has been made to make the data as accurate as possible it does not meet MetOffice standards. It is proved as a guide of local weather conditions. We accept no liability for any loss which may arise from use of the data.

Copyright © Carnkie Weather 2009 - 2018.